M I D A S
Marine Information and Data Acquisition System
Tripno 1893 of the Zeeleeuw from 2010-06-03 06:12:09 to 2010-06-03 17:18:40
Back to CruiseResearch ActivitiesStationsMapUnderway DataData graphs

EquipmentUnitsComment
TimeDGPSUTC
LatitudeDGPSDM.mWGS84
LongitudeDGPSDM.mWGS84
TemperatureSBE03/SBE38deg celciusITS90
ConductivitySBE21S/mITS90
SalinitySBE21 Practical Salinity Units
ChlorophylAChelsea fluorimeterg/lCalibrated in Aceton
Missing or incorrect values are displayed as -999
Sea surface data collected by the RV Zeeleeuw from 2010-06-03 06:13:10 to 2010-06-03 17:25:54
                                                                                    Next 1000 lines
Time Latitude Longitude Temperature Conductivity Salinity ChlorophylA
2010-06-03 06:13:20 51°13.661 2°55.955 20.9459 0.084619 0.446537 -1.000568
2010-06-03 06:13:25 51°13.662 2°55.952 20.9284 0.084619 0.44653 -1.000568
2010-06-03 06:13:30 51°13.663 2°55.947 20.9644 0.084515 0.445962 -0.965744
2010-06-03 06:13:35 51°13.665 2°55.942 20.9944 0.084619 0.44653 -1.000568
2010-06-03 06:13:41 51°13.667 2°55.933 21.0054 0.084515 0.445962 -0.965744
2010-06-03 06:13:47 51°13.67 2°55.924 21.0293 0.084619 0.44653 -1.000568
2010-06-03 06:13:52 51°13.672 2°55.917 21.0329 0.084619 0.44653 -1.000568
2010-06-03 06:13:58 51°13.674 2°55.911 21.0213 0.084619 0.446523 -0.965744
2010-06-03 06:14:04 51°13.676 2°55.907 21.0136 0.084619 0.446517 -1.000568
2010-06-03 06:14:09 51°13.677 2°55.903 20.9601 0.084619 0.446503 -0.965744
2010-06-03 06:14:14 51°13.678 2°55.899 20.9833 0.084619 0.446503 -1.000568
2010-06-03 06:14:19 51°13.68 2°55.895 20.943 0.084619 0.446503 -0.965744
2010-06-03 06:14:23 51°13.681 2°55.891 20.9544 0.084619 0.446503 -0.965744
2010-06-03 06:14:28 51°13.683 2°55.886 20.9373 0.084619 0.446496 -0.965744
2010-06-03 06:14:33 51°13.685 2°55.879 20.9885 0.084619 0.446503 -0.93092
2010-06-03 06:14:38 51°13.688 2°55.873 20.9953 0.084619 0.446496 -1.000568
2010-06-03 06:14:44 51°13.691 2°55.863 21.0128 0.084619 0.446503 -1.000568
2010-06-03 06:14:48 51°13.693 2°55.857 21.0071 0.084619 0.446503 -1.000568
2010-06-03 06:14:54 51°13.696 2°55.848 21.0074 0.084619 0.446503 -1.000568
2010-06-03 06:14:59 51°13.698 2°55.84 21.0054 0.084619 0.446482 -0.965744
2010-06-03 06:15:04 51°13.701 2°55.831 21.0197 0.084619 0.446482 -1.000568
2010-06-03 06:15:08 51°13.702 2°55.825 21.0104 0.084619 0.446469 -0.965744
2010-06-03 06:15:14 51°13.705 2°55.815 21.0061 0.084619 0.446469 -0.965744
2010-06-03 06:15:19 51°13.707 2°55.806 21.0034 0.084619 0.446462 -1.000568
2010-06-03 06:15:24 51°13.709 2°55.799 21.0041 0.084619 0.446462 -1.000568
2010-06-03 06:15:28 51°13.71 2°55.792 21.0045 0.084619 0.446448 -1.000568
2010-06-03 06:15:34 51°13.712 2°55.783 21.0032 0.084619 0.446455 -0.965744
2010-06-03 06:15:39 51°13.713 2°55.775 21.0026 0.084619 0.446455 -1.000568
2010-06-03 06:15:44 51°13.715 2°55.768 21.0022 0.084619 0.446455 -0.965744
2010-06-03 06:15:48 51°13.716 2°55.762 21.0013 0.084619 0.446455 -1.000568
2010-06-03 06:15:54 51°13.717 2°55.753 20.9994 0.084619 0.446455 -1.000568
2010-06-03 06:15:59 51°13.718 2°55.746 21.0083 0.084619 0.446448 -0.965744
2010-06-03 06:16:03 51°13.719 2°55.741 21.0239 0.084619 0.446448 -1.000568
2010-06-03 06:16:08 51°13.72 2°55.736 21.0348 0.084619 0.446441 -0.965744
2010-06-03 06:16:13 51°13.72 2°55.733 21.0106 0.084619 0.446434 -0.965744
2010-06-03 06:16:18 51°13.721 2°55.731 20.9993 0.084619 0.446428 -0.965744
2010-06-03 06:16:23 51°13.721 2°55.73 21.0134 0.084619 0.446428 -0.965744
2010-06-03 06:16:28 51°13.722 2°55.729 21.0169 0.084619 0.446434 -0.965744
2010-06-03 06:16:32 51°13.722 2°55.729 21.0117 0.084619 0.446428 -1.000568
2010-06-03 06:16:37 51°13.723 2°55.729 21.0237 0.084619 0.446428 -1.000568
2010-06-03 06:16:42 51°13.724 2°55.729 21.0042 0.084619 0.446428 -1.000568
2010-06-03 06:16:47 51°13.724 2°55.731 21.0044 0.084619 0.446407 -0.965744
2010-06-03 06:16:52 51°13.725 2°55.731 20.8979 0.084619 0.446407 -0.965744
2010-06-03 06:16:56 51°13.726 2°55.732 20.9355 0.084619 0.446421 -0.965744
2010-06-03 06:17:01 51°13.726 2°55.731 20.6846 0.084619 0.446414 -0.965744
2010-06-03 06:17:06 51°13.725 2°55.729 20.938 0.084619 0.446421 -0.965744
2010-06-03 06:17:11 51°13.724 2°55.727 20.9247 0.084619 0.446414 -0.965744
2010-06-03 06:17:16 51°13.722 2°55.724 20.9803 0.084619 0.446414 -1.000568
2010-06-03 06:17:21 51°13.72 2°55.722 20.9296 0.084619 0.446414 -1.000568
2010-06-03 06:17:26 51°13.719 2°55.719 20.9314 0.084619 0.4464 -0.965744
2010-06-03 06:17:32 51°13.717 2°55.716 20.9679 0.084619 0.446393 -1.000568
2010-06-03 06:17:38 51°13.715 2°55.714 20.9932 0.084619 0.446387 -0.965744
2010-06-03 06:17:43 51°13.715 2°55.713 21.029 0.084619 0.44638 -1.000568
2010-06-03 06:17:48 51°13.716 2°55.713 21.0352 0.084619 0.44638 -1.000568
2010-06-03 06:17:54 51°13.718 2°55.714 21.0208 0.084619 0.44638 -1.000568
2010-06-03 06:17:59 51°13.721 2°55.714 21.0404 0.084619 0.446387 -1.000568
2010-06-03 06:18:03 51°13.723 2°55.714 21.0388 0.084619 0.446407 -0.965744
2010-06-03 06:18:08 51°13.726 2°55.713 21.0363 0.084619 0.4464 -0.965744
2010-06-03 06:18:13 51°13.73 2°55.711 21.0328 0.084619 0.446407 -0.965744
2010-06-03 06:18:19 51°13.735 2°55.708 21.0347 0.084619 0.4464 -1.000568
2010-06-03 06:18:24 51°13.739 2°55.706 21.0128 0.084619 0.4464 -1.000568
2010-06-03 06:18:28 51°13.742 2°55.703 21.0163 0.084619 0.446393 -0.965744
2010-06-03 06:18:33 51°13.747 2°55.699 20.9813 0.084619 0.446366 -1.000568
2010-06-03 06:18:38 51°13.752 2°55.695 20.9689 0.084619 0.446352 -0.965744
2010-06-03 06:18:43 51°13.758 2°55.691 20.9565 0.084619 0.446332 -1.000568
2010-06-03 06:18:48 51°13.764 2°55.686 20.9581 0.084619 0.446332 -1.000568
2010-06-03 06:18:52 51°13.769 2°55.683 20.9376 0.084619 0.446332 -1.000568
2010-06-03 06:18:57 51°13.775 2°55.677 20.924 0.084619 0.446346 -0.965744
2010-06-03 06:19:02 51°13.782 2°55.672 20.9259 0.084619 0.446366 -0.965744
2010-06-03 06:19:07 51°13.789 2°55.667 20.9323 0.084619 0.44638 -0.965744
2010-06-03 06:19:12 51°13.796 2°55.661 20.9119 0.084619 0.446393 -0.965744
2010-06-03 06:19:16 51°13.802 2°55.656 20.8945 0.084619 0.4464 -1.000568
2010-06-03 06:19:21 51°13.809 2°55.65 20.8836 0.084619 0.4464 -1.000568
2010-06-03 06:19:26 51°13.817 2°55.645 20.8811 0.084619 0.4464 -1.000568
2010-06-03 06:19:31 51°13.825 2°55.639 20.876 0.084619 0.446393 -1.000568
2010-06-03 06:19:36 51°13.833 2°55.633 20.877 0.084619 0.446393 -0.93092
2010-06-03 06:19:41 51°13.84 2°55.627 20.9012 0.084619 0.446393 -1.000568
2010-06-03 06:19:46 51°13.849 2°55.62 20.9115 0.084619 0.446407 -0.965744
2010-06-03 06:19:51 51°13.857 2°55.614 20.8784 0.084619 0.446407 -0.965744
2010-06-03 06:19:56 51°13.866 2°55.607 20.8713 0.084619 0.446407 -0.965744
2010-06-03 06:20:00 51°13.873 2°55.602 20.8759 0.084619 0.4464 -0.965744
2010-06-03 06:20:05 51°13.882 2°55.596 20.8878 0.084619 0.4464 -0.965744
2010-06-03 06:20:10 51°13.891 2°55.59 20.9051 0.084619 0.44638 -1.000568
2010-06-03 06:20:15 51°13.901 2°55.583 20.9294 0.084619 0.44638 -0.965744
2010-06-03 06:20:20 51°13.911 2°55.577 20.9435 0.084619 0.44638 -0.965744
2010-06-03 06:20:25 51°13.92 2°55.569 20.9424 0.084619 0.446393 -1.000568
2010-06-03 06:20:30 51°13.929 2°55.561 20.8393 0.084619 0.446407 -0.965744
2010-06-03 06:20:35 51°13.939 2°55.554 20.8026 0.084619 0.446393 -1.000568
2010-06-03 06:20:40 51°13.948 2°55.547 20.9209 0.084619 0.44638 -0.965744
2010-06-03 06:20:45 51°13.958 2°55.54 20.9308 0.084619 0.446373 -0.965744
2010-06-03 06:20:50 51°13.967 2°55.533 20.8662 0.084619 0.446373 -0.965744
2010-06-03 06:20:55 51°13.977 2°55.526 20.9057 0.084619 0.446373 -1.000568
2010-06-03 06:21:00 51°13.986 2°55.519 20.9344 0.084619 0.446359 -0.965744
2010-06-03 06:21:05 51°13.996 2°55.512 20.9329 0.084619 0.446359 -1.000568
2010-06-03 06:21:10 51°14.005 2°55.506 20.9336 0.084619 0.446366 -0.965744
2010-06-03 06:21:15 51°14.015 2°55.498 20.9415 0.084619 0.446366 -1.000568
2010-06-03 06:21:20 51°14.024 2°55.492 20.9394 0.084619 0.446366 -1.000568
2010-06-03 06:21:25 51°14.034 2°55.485 20.9426 0.084619 0.446373 -0.965744
2010-06-03 06:21:30 51°14.043 2°55.478 20.9521 0.084619 0.446373 -1.000568
2010-06-03 06:21:35 51°14.053 2°55.472 20.9362 0.084619 0.446373 -0.965744
2010-06-03 06:21:40 51°14.062 2°55.464 20.9561 0.084619 0.446373 -1.000568
2010-06-03 06:21:45 51°14.072 2°55.457 20.9506 0.084619 0.446359 -0.965744
2010-06-03 06:21:50 51°14.081 2°55.449 20.9381 0.084619 0.446359 -0.965744
2010-06-03 06:21:55 51°14.091 2°55.442 20.9419 0.084619 0.446359 -1.000568
2010-06-03 06:22:00 51°14.1 2°55.435 20.9597 0.084619 0.446352 -1.000568
2010-06-03 06:22:05 51°14.11 2°55.427 20.9631 0.084619 0.446346 -0.965744
2010-06-03 06:22:10 51°14.119 2°55.42 20.9573 0.084619 0.446346 -0.965744
2010-06-03 06:22:15 51°14.129 2°55.412 20.9495 0.084619 0.446352 -0.965744
2010-06-03 06:22:20 51°14.138 2°55.404 20.975 0.084619 0.446352 -0.965744
2010-06-03 06:22:25 51°14.148 2°55.396 20.976 0.084619 0.446339 -1.000568
2010-06-03 06:22:30 51°14.157 2°55.387 20.974 0.084619 0.446346 -0.965744
2010-06-03 06:22:35 51°14.166 2°55.379 20.9855 0.084619 0.446339 -1.000568
2010-06-03 06:22:40 51°14.176 2°55.37 20.9862 0.084619 0.446339 -0.965744
2010-06-03 06:22:45 51°14.185 2°55.361 20.9754 0.084619 0.446339 -0.965744
2010-06-03 06:22:50 51°14.195 2°55.351 20.9472 0.084619 0.446339 -0.965744
2010-06-03 06:22:55 51°14.204 2°55.342 20.9391 0.084619 0.446332 -1.000568
2010-06-03 06:23:00 51°14.213 2°55.332 20.9169 0.084619 0.446325 -0.965744
2010-06-03 06:23:05 51°14.223 2°55.323 20.9044 0.084619 0.446311 -0.965744
2010-06-03 06:23:10 51°14.232 2°55.313 20.9268 0.084619 0.446311 -0.965744
2010-06-03 06:23:15 51°14.242 2°55.304 20.9167 0.084619 0.446305 -1.000568
2010-06-03 06:23:20 51°14.251 2°55.294 20.9266 0.084619 0.446305 -1.000568
2010-06-03 06:23:25 51°14.261 2°55.285 20.9381 0.084619 0.446298 -0.965744
2010-06-03 06:23:30 51°14.271 2°55.275 20.943 0.084619 0.446305 -1.035392
2010-06-03 06:23:35 51°14.282 2°55.266 20.9494 0.084619 0.446298 -0.965744
2010-06-03 06:23:40 51°14.292 2°55.256 20.9241 0.084619 0.446311 -0.965744
2010-06-03 06:23:45 51°14.302 2°55.246 20.8844 0.084619 0.446298 -1.000568
2010-06-03 06:23:50 51°14.313 2°55.235 20.9269 0.084619 0.446298 -1.000568
2010-06-03 06:23:55 51°14.324 2°55.225 20.9493 0.084619 0.446284 -1.000568
2010-06-03 06:24:00 51°14.335 2°55.215 20.9343 0.084619 0.446277 -0.965744
2010-06-03 06:24:05 51°14.346 2°55.204 20.8979 0.084619 0.446284 -1.000568
2010-06-03 06:24:10 51°14.357 2°55.194 20.9189 0.084619 0.446277 -1.000568
2010-06-03 06:24:15 51°14.368 2°55.183 20.9289 0.084619 0.44627 -1.000568
2010-06-03 06:24:20 51°14.379 2°55.173 20.911 0.084619 0.44627 -1.000568
2010-06-03 06:24:25 51°14.39 2°55.162 20.9092 0.084619 0.44627 -1.000568
2010-06-03 06:24:30 51°14.401 2°55.151 20.9318 0.084619 0.44627 -0.965744
2010-06-03 06:24:35 51°14.412 2°55.14 20.9514 0.084619 0.446257 -0.965744
2010-06-03 06:24:40 51°14.424 2°55.129 20.8796 0.084619 0.446264 -0.965744
2010-06-03 06:24:45 51°14.435 2°55.118 20.888 0.084619 0.446257 -0.965744
2010-06-03 06:24:50 51°14.446 2°55.107 20.9165 0.084619 0.446257 -0.965744
2010-06-03 06:24:55 51°14.457 2°55.096 20.9226 0.084619 0.446243 -1.000568
2010-06-03 06:25:00 51°14.469 2°55.084 20.9027 0.084619 0.446229 -0.93092
2010-06-03 06:25:05 51°14.481 2°55.073 20.9276 0.084619 0.446229 -1.000568
2010-06-03 06:25:10 51°14.492 2°55.061 20.8959 0.084619 0.446223 -0.965744
2010-06-03 06:25:15 51°14.504 2°55.049 20.8978 0.084619 0.446236 -0.965744
2010-06-03 06:25:20 51°14.516 2°55.037 20.8423 0.084619 0.446236 -0.965744
2010-06-03 06:25:25 51°14.528 2°55.025 20.893 0.084619 0.446229 -1.000568
2010-06-03 06:25:30 51°14.54 2°55.014 20.8682 0.084619 0.446209 -0.965744
2010-06-03 06:25:35 51°14.553 2°55.002 20.9181 0.084619 0.446202 -0.965744
2010-06-03 06:25:40 51°14.565 2°54.99 20.853 0.084619 0.446202 -1.000568
2010-06-03 06:25:45 51°14.578 2°54.978 20.7971 0.084619 0.446195 -1.000568
2010-06-03 06:25:50 51°14.591 2°54.966 20.891 0.084619 0.446195 -1.000568
2010-06-03 06:25:55 51°14.604 2°54.954 20.8657 0.084619 0.446189 -1.000568
2010-06-03 06:26:00 51°14.617 2°54.941 20.8888 0.084619 0.446195 -1.000568
2010-06-03 06:26:05 51°14.63 2°54.929 20.8363 0.084619 0.446182 -0.965744
2010-06-03 06:26:10 51°14.643 2°54.916 20.8503 0.084619 0.446175 -1.000568
2010-06-03 06:26:15 51°14.657 2°54.903 20.8629 0.084619 0.446161 -0.965744
2010-06-03 06:26:20 51°14.67 2°54.891 20.7972 0.084619 0.446161 -0.965744
2010-06-03 06:26:25 51°14.684 2°54.877 20.8344 0.084619 0.446168 -0.965744
2010-06-03 06:26:30 51°14.698 2°54.864 20.779 0.084723 0.446723 -1.000568
2010-06-03 06:26:35 51°14.712 2°54.851 20.8305 0.084619 0.446148 -1.000568
2010-06-03 06:26:40 51°14.727 2°54.838 20.7763 0.084619 0.446141 -1.000568
2010-06-03 06:26:45 51°14.741 2°54.824 20.7989 0.084619 0.446141 -1.000568
2010-06-03 06:26:50 51°14.757 2°54.811 20.7745 0.084619 0.446141 -1.000568
2010-06-03 06:26:55 51°14.772 2°54.797 20.7597 0.084619 0.446127 -1.000568
2010-06-03 06:27:00 51°14.788 2°54.783 20.7874 0.084619 0.446134 -0.965744
2010-06-03 06:27:05 51°14.804 2°54.768 20.8239 0.084619 0.44612 -1.035392
2010-06-03 06:27:10 51°14.819 2°54.754 20.7619 0.084619 0.44612 -0.965744
2010-06-03 06:27:15 51°14.835 2°54.739 20.8194 0.084619 0.446107 -1.000568
2010-06-03 06:27:20 51°14.851 2°54.723 20.7953 0.084619 0.446107 -1.000568
2010-06-03 06:27:25 51°14.867 2°54.708 20.8029 0.084723 0.446675 -1.000568
2010-06-03 06:27:30 51°14.882 2°54.691 20.7591 0.084619 0.446093 -1.000568
2010-06-03 06:27:35 51°14.898 2°54.676 20.8297 0.084619 0.446072 -0.93092
2010-06-03 06:27:40 51°14.913 2°54.659 20.7259 0.084723 0.446661 -0.965744
2010-06-03 06:27:45 51°14.928 2°54.641 20.8088 0.084723 0.446647 -0.965744
2010-06-03 06:27:50 51°14.943 2°54.624 20.7409 0.084723 0.446647 -0.965744
2010-06-03 06:27:55 51°14.958 2°54.606 20.8072 0.084723 0.446654 -0.965744
2010-06-03 06:28:00 51°14.973 2°54.589 20.6798 0.084619 0.446052 -1.000568
2010-06-03 06:28:05 51°14.987 2°54.569 20.767 0.084619 0.446059 -1.000568
2010-06-03 06:28:10 51°15.001 2°54.552 20.6627 0.084723 0.446593 -1.000568
2010-06-03 06:28:15 51°15.015 2°54.533 20.7466 0.084723 0.446606 -0.965744
2010-06-03 06:28:20 51°15.03 2°54.515 20.7543 0.084723 0.446606 -0.965744
2010-06-03 06:28:25 51°15.044 2°54.495 20.7598 0.084723 0.446593 -0.965744
2010-06-03 06:28:30 51°15.058 2°54.477 20.7509 0.084723 0.446593 -1.000568
2010-06-03 06:28:35 51°15.072 2°54.458 20.7031 0.084723 0.446593 -0.965744
2010-06-03 06:28:40 51°15.086 2°54.439 20.7303 0.084723 0.446586 -1.000568
2010-06-03 06:28:45 51°15.101 2°54.42 20.7321 0.084723 0.446572 -1.000568
2010-06-03 06:28:50 51°15.115 2°54.401 20.7764 0.084723 0.446572 -1.000568
2010-06-03 06:28:55 51°15.129 2°54.383 20.7474 0.084723 0.446565 -0.965744
2010-06-03 06:29:00 51°15.143 2°54.363 20.7212 0.084723 0.446559 -1.035392
2010-06-03 06:29:05 51°15.157 2°54.345 20.7487 0.084723 0.446552 -1.000568
2010-06-03 06:29:10 51°15.171 2°54.326 20.7632 0.084723 0.446552 -0.965744
2010-06-03 06:29:15 51°15.186 2°54.307 20.7656 0.084723 0.446545 -1.000568
2010-06-03 06:29:20 51°15.199 2°54.287 20.6745 0.084723 0.446545 -1.000568
2010-06-03 06:29:25 51°15.214 2°54.268 20.7496 0.084723 0.446545 -1.000568
2010-06-03 06:29:30 51°15.228 2°54.248 20.6875 0.084723 0.446525 -0.965744
2010-06-03 06:29:35 51°15.242 2°54.229 20.7376 0.084723 0.446531 -1.000568
2010-06-03 06:29:40 51°15.256 2°54.21 20.7378 0.084723 0.446518 -0.965744
2010-06-03 06:29:45 51°15.27 2°54.191 20.7309 0.084723 0.446511 -1.000568
2010-06-03 06:29:50 51°15.285 2°54.172 20.7675 0.084723 0.446511 -1.000568
2010-06-03 06:29:55 51°15.299 2°54.153 20.7269 0.084723 0.446504 -1.000568
2010-06-03 06:30:00 51°15.313 2°54.134 20.7293 0.084723 0.446504 -0.965744
2010-06-03 06:30:05 51°15.327 2°54.115 20.7212 0.084723 0.44649 -1.000568
2010-06-03 06:30:10 51°15.342 2°54.096 20.7556 0.084723 0.44649 -1.000568
2010-06-03 06:30:15 51°15.356 2°54.077 20.7282 0.084723 0.44649 -0.965744
2010-06-03 06:30:20 51°15.371 2°54.058 20.7591 0.084723 0.44649 -0.965744
2010-06-03 06:30:25 51°15.385 2°54.039 20.7133 0.084723 0.446477 -1.000568
2010-06-03 06:30:30 51°15.399 2°54.02 20.751 0.084723 0.44647 -1.000568
2010-06-03 06:30:35 51°15.414 2°54.002 20.7471 0.084723 0.446456 -0.965744
2010-06-03 06:30:40 51°15.429 2°53.983 20.7606 0.084723 0.446456 -1.000568
2010-06-03 06:30:45 51°15.444 2°53.965 20.729 0.084723 0.446443 -0.93092
2010-06-03 06:30:50 51°15.458 2°53.947 20.7246 0.084723 0.446443 -0.93092
2010-06-03 06:30:55 51°15.473 2°53.929 20.7531 0.084723 0.446436 -0.965744
2010-06-03 06:31:00 51°15.488 2°53.911 20.7274 0.084723 0.446429 -0.965744
2010-06-03 06:31:05 51°15.503 2°53.894 20.7409 0.084723 0.446415 -0.965744
2010-06-03 06:31:10 51°15.518 2°53.876 20.7058 0.084723 0.446436 -0.965744
2010-06-03 06:31:15 51°15.533 2°53.858 20.7447 0.084723 0.446429 -1.000568
2010-06-03 06:31:20 51°15.548 2°53.841 20.7493 0.084723 0.446429 -1.000568
2010-06-03 06:31:25 51°15.563 2°53.823 20.7278 0.084723 0.446408 -0.965744
2010-06-03 06:31:30 51°15.578 2°53.806 20.7574 0.084723 0.446408 -0.965744
2010-06-03 06:31:35 51°15.594 2°53.789 20.7544 0.084723 0.446395 -1.000568
2010-06-03 06:31:40 51°15.609 2°53.772 20.7525 0.084723 0.446388 -0.965744
2010-06-03 06:31:45 51°15.624 2°53.755 20.7462 0.084723 0.446381 -1.000568
2010-06-03 06:31:50 51°15.639 2°53.738 20.7435 0.084723 0.446381 -1.000568
2010-06-03 06:31:55 51°15.654 2°53.72 20.7578 0.084723 0.446381 -1.000568
2010-06-03 06:32:00 51°15.669 2°53.703 20.7457 0.084723 0.446381 -0.965744
2010-06-03 06:32:05 51°15.685 2°53.686 20.7114 0.084723 0.446374 -0.965744
2010-06-03 06:32:10 51°15.7 2°53.668 20.7603 0.084723 0.446361 -1.000568
2010-06-03 06:32:15 51°15.715 2°53.651 20.7369 0.084723 0.446354 -1.000568
2010-06-03 06:32:20 51°15.73 2°53.634 20.7081 0.084723 0.446354 -1.000568
2010-06-03 06:32:25 51°15.746 2°53.617 20.737 0.084723 0.446347 -1.000568
2010-06-03 06:32:30 51°15.761 2°53.601 20.7212 0.084723 0.44634 -0.965744
2010-06-03 06:32:35 51°15.777 2°53.584 20.726 0.084723 0.446333 -0.965744
2010-06-03 06:32:40 51°15.793 2°53.569 20.7177 0.084723 0.446327 -1.000568
2010-06-03 06:32:45 51°15.808 2°53.553 20.7652 0.084723 0.446333 -1.000568
2010-06-03 06:32:50 51°15.824 2°53.538 20.7352 0.084723 0.446333 -1.000568
2010-06-03 06:32:55 51°15.84 2°53.522 20.7135 0.084723 0.446327 -0.965744
2010-06-03 06:33:00 51°15.856 2°53.507 20.7166 0.084723 0.446313 -0.965744
2010-06-03 06:33:05 51°15.872 2°53.492 20.7456 0.084723 0.44632 -0.965744
2010-06-03 06:33:10 51°15.888 2°53.477 20.7361 0.084723 0.446313 -0.965744
2010-06-03 06:33:15 51°15.905 2°53.463 20.7285 0.084723 0.446313 -1.000568
2010-06-03 06:33:20 51°15.921 2°53.449 20.7457 0.084723 0.446313 -1.000568
2010-06-03 06:33:25 51°15.938 2°53.435 20.7286 0.084723 0.446299 -0.965744
2010-06-03 06:33:30 51°15.955 2°53.421 20.7147 0.084723 0.446299 -1.000568
2010-06-03 06:33:35 51°15.971 2°53.408 20.7436 0.084723 0.446286 -1.000568
2010-06-03 06:33:40 51°15.988 2°53.395 20.7428 0.084723 0.446292 -1.000568
2010-06-03 06:33:45 51°16.005 2°53.382 20.7602 0.084723 0.446292 -1.000568
2010-06-03 06:33:50 51°16.022 2°53.369 20.7502 0.084723 0.446292 -1.000568
2010-06-03 06:33:55 51°16.038 2°53.356 20.7373 0.084723 0.446286 -1.000568
2010-06-03 06:34:00 51°16.055 2°53.342 20.7541 0.084723 0.446279 -0.965744
2010-06-03 06:34:05 51°16.071 2°53.329 20.7135 0.084723 0.446265 -0.965744
2010-06-03 06:34:10 51°16.088 2°53.316 20.7607 0.084723 0.446265 -0.965744
2010-06-03 06:34:15 51°16.105 2°53.303 20.7319 0.084723 0.446279 -1.000568
2010-06-03 06:34:20 51°16.121 2°53.289 20.7235 0.084723 0.446279 -1.000568
2010-06-03 06:34:25 51°16.138 2°53.276 20.7086 0.084723 0.446279 -0.965744
2010-06-03 06:34:30 51°16.155 2°53.263 20.7556 0.084723 0.446265 -1.000568
2010-06-03 06:34:35 51°16.171 2°53.25 20.7436 0.084723 0.446258 -0.965744
2010-06-03 06:34:40 51°16.188 2°53.236 20.7678 0.084723 0.446265 -0.965744
2010-06-03 06:34:45 51°16.205 2°53.224 20.7374 0.084723 0.446252 -0.965744
2010-06-03 06:34:50 51°16.221 2°53.21 20.7441 0.084723 0.446252 -0.965744
2010-06-03 06:34:55 51°16.238 2°53.197 20.726 0.084723 0.446252 -1.000568
2010-06-03 06:35:00 51°16.254 2°53.184 20.7269 0.084723 0.446245 -0.93092
2010-06-03 06:35:05 51°16.271 2°53.17 20.7552 0.084723 0.446245 -0.965744
2010-06-03 06:35:10 51°16.287 2°53.158 20.7499 0.084723 0.446231 -0.965744
2010-06-03 06:35:15 51°16.304 2°53.144 20.7557 0.084723 0.446231 -0.965744
2010-06-03 06:35:20 51°16.321 2°53.131 20.7333 0.084723 0.446231 -0.965744
2010-06-03 06:35:25 51°16.337 2°53.117 20.7646 0.084723 0.446231 -1.000568
2010-06-03 06:35:30 51°16.354 2°53.104 20.7643 0.084723 0.446224 -1.000568
2010-06-03 06:35:35 51°16.371 2°53.091 20.7351 0.084827 0.446792 -0.965744
2010-06-03 06:35:40 51°16.387 2°53.077 20.7578 0.084723 0.446211 -1.000568
2010-06-03 06:35:45 51°16.404 2°53.064 20.7506 0.084723 0.446217 -1.000568
2010-06-03 06:35:50 51°16.42 2°53.05 20.7661 0.084723 0.446217 -1.000568
2010-06-03 06:35:55 51°16.437 2°53.037 20.7457 0.084723 0.446211 -0.965744
2010-06-03 06:36:00 51°16.454 2°53.024 20.7546 0.084827 0.446778 -0.965744
2010-06-03 06:36:05 51°16.471 2°53.011 20.7705 0.084827 0.446765 -1.035392
2010-06-03 06:36:10 51°16.487 2°52.997 20.7635 0.084723 0.446204 -0.965744
2010-06-03 06:36:15 51°16.504 2°52.984 20.7397 0.084723 0.446197 -0.965744
2010-06-03 06:36:20 51°16.521 2°52.97 20.7732 0.084723 0.446197 -0.965744
2010-06-03 06:36:25 51°16.537 2°52.956 20.7641 0.084723 0.446197 -1.000568
2010-06-03 06:36:30 51°16.554 2°52.942 20.7747 0.084827 0.446765 -0.965744
2010-06-03 06:36:35 51°16.571 2°52.929 20.7444 0.084827 0.446737 -0.965744
2010-06-03 06:36:40 51°16.587 2°52.915 20.7706 0.084827 0.446751 -1.000568
2010-06-03 06:36:45 51°16.604 2°52.902 20.7442 0.084723 0.446177 -0.965744
2010-06-03 06:36:50 51°16.621 2°52.889 20.7741 0.084723 0.446177 -0.965744
2010-06-03 06:36:55 51°16.638 2°52.875 20.7541 0.084723 0.446177 -0.965744
2010-06-03 06:37:00 51°16.654 2°52.861 20.7827 0.084723 0.44617 -1.000568
2010-06-03 06:37:05 51°16.671 2°52.847 20.7835 0.084827 0.446724 -0.965744
2010-06-03 06:37:10 51°16.688 2°52.834 20.7733 0.084827 0.44671 -0.965744
2010-06-03 06:37:15 51°16.704 2°52.82 20.7891 0.084827 0.446717 -1.000568
2010-06-03 06:37:20 51°16.721 2°52.806 20.7839 0.084827 0.446717 -1.000568
2010-06-03 06:37:25 51°16.737 2°52.792 20.763 0.084723 0.446142 -1.000568
2010-06-03 06:37:30 51°16.754 2°52.778 20.78 0.084723 0.446142 -1.000568
2010-06-03 06:37:35 51°16.771 2°52.765 20.7495 0.084827 0.44671 -1.000568
2010-06-03 06:37:40 51°16.788 2°52.752 20.7437 0.084827 0.446696 -1.000568
2010-06-03 06:37:45 51°16.805 2°52.739 20.7579 0.084827 0.446696 -0.965744
2010-06-03 06:37:50 51°16.822 2°52.727 20.7819 0.084827 0.446696 -0.965744
2010-06-03 06:37:55 51°16.839 2°52.714 20.76 0.084827 0.446676 -1.000568
2010-06-03 06:38:00 51°16.857 2°52.702 20.7661 0.084723 0.446115 -0.965744
2010-06-03 06:38:05 51°16.874 2°52.69 20.7632 0.084827 0.446683 -0.965744
2010-06-03 06:38:10 51°16.891 2°52.678 20.7767 0.084827 0.446676 -1.000568
2010-06-03 06:38:15 51°16.909 2°52.666 20.7713 0.084827 0.446669 -0.965744
2010-06-03 06:38:20 51°16.926 2°52.655 20.7776 0.084827 0.446669 -0.965744
2010-06-03 06:38:25 51°16.944 2°52.643 20.7648 0.084827 0.446669 -1.000568
2010-06-03 06:38:30 51°16.961 2°52.631 20.7717 0.084827 0.446662 -0.965744
2010-06-03 06:38:35 51°16.979 2°52.619 20.783 0.084827 0.446662 -1.000568
2010-06-03 06:38:40 51°16.997 2°52.608 20.7336 0.084827 0.446655 -1.000568
2010-06-03 06:38:45 51°17.014 2°52.596 20.745 0.084827 0.446649 -0.965744
2010-06-03 06:38:50 51°17.032 2°52.585 20.7349 0.084827 0.446649 -0.965744
2010-06-03 06:38:55 51°17.05 2°52.577 20.7503 0.084827 0.446635 -1.000568
2010-06-03 06:39:00 51°17.069 2°52.568 20.7243 0.084827 0.446615 -0.965744
2010-06-03 06:39:05 51°17.087 2°52.561 20.7745 0.084827 0.446615 -0.93092
2010-06-03 06:39:10 51°17.106 2°52.554 20.7661 0.084827 0.446628 -1.000568
2010-06-03 06:39:15 51°17.124 2°52.549 20.7658 0.084827 0.446621 -0.965744
2010-06-03 06:39:20 51°17.143 2°52.543 20.7596 0.084827 0.446621 -0.965744
2010-06-03 06:39:25 51°17.162 2°52.538 20.7804 0.084827 0.446621 -0.965744
2010-06-03 06:39:30 51°17.181 2°52.533 20.7521 0.084827 0.446615 -0.965744
2010-06-03 06:39:35 51°17.2 2°52.528 20.788 0.084827 0.446601 -1.000568
2010-06-03 06:39:40 51°17.219 2°52.524 20.7759 0.084827 0.446601 -0.965744
2010-06-03 06:39:45 51°17.238 2°52.519 20.7805 0.084827 0.446587 -0.965744
2010-06-03 06:39:50 51°17.257 2°52.515 20.7844 0.084827 0.446587 -0.965744
2010-06-03 06:39:55 51°17.276 2°52.51 20.7935 0.084827 0.446594 -1.000568
2010-06-03 06:40:00 51°17.295 2°52.506 20.7816 0.084827 0.446587 -1.000568
2010-06-03 06:40:05 51°17.314 2°52.501 20.788 0.084827 0.446574 -0.965744
2010-06-03 06:40:10 51°17.333 2°52.496 20.7527 0.084827 0.446574 -1.000568
2010-06-03 06:40:15 51°17.352 2°52.491 20.7641 0.084827 0.44656 -0.965744
2010-06-03 06:40:20 51°17.371 2°52.487 20.7947 0.084827 0.44656 -0.965744
2010-06-03 06:40:25 51°17.39 2°52.484 20.7948 0.084827 0.446546 -0.965744
2010-06-03 06:40:30 51°17.409 2°52.481 20.7922 0.084827 0.446533 -0.965744
2010-06-03 06:40:35 51°17.428 2°52.478 20.8014 0.084827 0.446539 -1.000568
2010-06-03 06:40:40 51°17.446 2°52.476 20.7987 0.084827 0.446533 -1.000568
2010-06-03 06:40:45 51°17.466 2°52.473 20.7819 0.084827 0.446539 -1.000568
2010-06-03 06:40:50 51°17.484 2°52.47 20.8025 0.084827 0.446539 -1.000568
2010-06-03 06:40:55 51°17.503 2°52.468 20.8003 0.084827 0.446526 -1.000568
2010-06-03 06:41:00 51°17.522 2°52.465 20.7991 0.084827 0.446519 -1.000568
2010-06-03 06:41:05 51°17.541 2°52.462 20.8042 0.084827 0.446505 -0.965744
2010-06-03 06:41:10 51°17.56 2°52.459 20.7997 0.084827 0.446505 -0.965744
2010-06-03 06:41:15 51°17.579 2°52.456 20.7891 0.084827 0.446492 -0.965744
2010-06-03 06:41:20 51°17.598 2°52.453 20.7675 0.084827 0.446492 -0.965744
2010-06-03 06:41:25 51°17.617 2°52.451 20.7947 0.084827 0.446485 -1.000568
2010-06-03 06:41:30 51°17.636 2°52.45 20.7823 0.084827 0.446465 -0.965744
2010-06-03 06:41:35 51°17.654 2°52.449 20.8043 0.084827 0.446471 -0.965744
2010-06-03 06:41:40 51°17.673 2°52.449 20.7469 0.084827 0.446471 -1.000568
2010-06-03 06:41:45 51°17.693 2°52.448 20.8108 0.084827 0.446465 -0.965744
2010-06-03 06:41:50 51°17.712 2°52.449 20.773 0.084827 0.446465 -0.965744
2010-06-03 06:41:55 51°17.73 2°52.449 20.7991 0.084827 0.446478 -0.965744
2010-06-03 06:42:00 51°17.75 2°52.45 20.8036 0.084827 0.446465 -1.000568
2010-06-03 06:42:05 51°17.769 2°52.45 20.8126 0.084827 0.446451 -0.965744
2010-06-03 06:42:10 51°17.788 2°52.451 20.8077 0.084827 0.44643 -0.965744
2010-06-03 06:42:15 51°17.807 2°52.45 20.8032 0.084827 0.44643 -1.000568
2010-06-03 06:42:20 51°17.826 2°52.451 20.816 0.084827 0.44643 -1.000568
2010-06-03 06:42:25 51°17.845 2°52.451 20.8032 0.084827 0.44641 -1.000568
2010-06-03 06:42:30 51°17.864 2°52.451 20.8165 0.084827 0.44641 -0.965744
2010-06-03 06:42:35 51°17.883 2°52.451 20.8213 0.084827 0.446396 -0.965744
2010-06-03 06:42:40 51°17.902 2°52.452 20.8126 0.084827 0.446396 -1.000568
2010-06-03 06:42:45 51°17.922 2°52.452 20.7656 0.084827 0.44639 -1.000568
2010-06-03 06:42:50 51°17.941 2°52.452 20.8117 0.084827 0.44639 -1.000568
2010-06-03 06:42:55 51°17.96 2°52.455 20.7816 0.084827 0.446369 -1.000568
2010-06-03 06:43:00 51°17.979 2°52.456 20.8329 0.084827 0.446376 -1.000568
2010-06-03 06:43:05 51°17.998 2°52.459 20.7974 0.084827 0.446349 -1.000568
2010-06-03 06:43:10 51°18.017 2°52.46 20.815 0.084827 0.446356 -1.000568
2010-06-03 06:43:15 51°18.036 2°52.464 20.8003 0.084827 0.446356 -1.000568
2010-06-03 06:43:20 51°18.055 2°52.466 20.8263 0.084827 0.446356 -1.000568
2010-06-03 06:43:25 51°18.074 2°52.469 20.8036 0.084827 0.446349 -0.965744
2010-06-03 06:43:30 51°18.093 2°52.471 20.8179 0.084827 0.446342 -0.965744
2010-06-03 06:43:35 51°18.112 2°52.474 20.8246 0.084827 0.446321 -1.000568
2010-06-03 06:43:40 51°18.131 2°52.477 20.8233 0.084827 0.446315 -0.965744
2010-06-03 06:43:45 51°18.15 2°52.48 20.8111 0.084827 0.446301 -0.965744
2010-06-03 06:43:50 51°18.169 2°52.482 20.8271 0.084827 0.446301 -0.965744
2010-06-03 06:43:55 51°18.188 2°52.485 20.8187 0.084827 0.446294 -0.965744
2010-06-03 06:44:00 51°18.207 2°52.487 20.8188 0.084827 0.446281 -0.965744
2010-06-03 06:44:05 51°18.226 2°52.49 20.8173 0.084827 0.446281 -0.965744
2010-06-03 06:44:10 51°18.245 2°52.493 20.8199 0.084827 0.446274 -0.965744
2010-06-03 06:44:15 51°18.264 2°52.495 20.8313 0.084827 0.446267 -1.000568
2010-06-03 06:44:20 51°18.283 2°52.498 20.8183 0.084827 0.446267 -1.000568
2010-06-03 06:44:25 51°18.302 2°52.5 20.8434 0.084827 0.44626 -1.000568
2010-06-03 06:44:30 51°18.321 2°52.503 20.8246 0.084827 0.446247 -1.000568
2010-06-03 06:44:35 51°18.341 2°52.505 20.8311 0.084827 0.446247 -0.965744
2010-06-03 06:44:40 51°18.36 2°52.508 20.8302 0.084827 0.446226 -1.000568
2010-06-03 06:44:45 51°18.379 2°52.51 20.8267 0.084827 0.446226 -0.965744
2010-06-03 06:44:50 51°18.398 2°52.513 20.8232 0.084827 0.446226 -0.965744
2010-06-03 06:44:55 51°18.417 2°52.515 20.8358 0.084827 0.446213 -1.000568
2010-06-03 06:45:00 51°18.436 2°52.518 20.8227 0.084827 0.446199 -0.965744
2010-06-03 06:45:05 51°18.455 2°52.521 20.8344 0.084827 0.446185 -1.000568
2010-06-03 06:45:10 51°18.474 2°52.523 20.831 0.084931 0.446752 -0.965744
2010-06-03 06:45:15 51°18.493 2°52.526 20.8373 0.084931 0.446739 -1.000568
2010-06-03 06:45:20 51°18.512 2°52.528 20.8431 0.084931 0.446739 -1.000568
2010-06-03 06:45:25 51°18.531 2°52.531 20.832 0.084827 0.446165 -0.965744
2010-06-03 06:45:30 51°18.55 2°52.533 20.8369 0.084827 0.446151 -0.965744
2010-06-03 06:45:35 51°18.569 2°52.536 20.8492 0.084827 0.446151 -0.965744
2010-06-03 06:45:40 51°18.588 2°52.538 20.8071 0.084931 0.446704 -0.965744
2010-06-03 06:45:45 51°18.607 2°52.54 20.8517 0.084827 0.446131 -0.965744
2010-06-03 06:45:50 51°18.626 2°52.543 20.8224 0.084827 0.446131 -0.965744
2010-06-03 06:45:55 51°18.645 2°52.545 20.8511 0.084931 0.446691 -0.965744
2010-06-03 06:46:00 51°18.664 2°52.548 20.8181 0.084931 0.44667 -0.965744
2010-06-03 06:46:05 51°18.684 2°52.551 20.8265 0.084931 0.446664 -0.965744
2010-06-03 06:46:10 51°18.703 2°52.553 20.8411 0.084931 0.446657 -0.965744
2010-06-03 06:46:15 51°18.722 2°52.556 20.8423 0.084931 0.44665 -0.965744
2010-06-03 06:46:20 51°18.741 2°52.558 20.8391 0.084931 0.44665 -0.965744
2010-06-03 06:46:25 51°18.76 2°52.561 20.8411 0.084931 0.44665 -1.035392
2010-06-03 06:46:30 51°18.779 2°52.564 20.8365 0.084931 0.44663 -0.965744
2010-06-03 06:46:35 51°18.798 2°52.566 20.8264 0.084931 0.446623 -1.035392
2010-06-03 06:46:40 51°18.817 2°52.569 20.8502 0.084931 0.446616 -1.000568
2010-06-03 06:46:45 51°18.836 2°52.571 20.8434 0.084931 0.446602 -0.965744
2010-06-03 06:46:50 51°18.855 2°52.573 20.8429 0.084931 0.446602 -0.965744
2010-06-03 06:46:55 51°18.873 2°52.576 20.8441 0.084931 0.446596 -1.000568
2010-06-03 06:47:00 51°18.892 2°52.578 20.8555 0.084931 0.446589 -1.000568
2010-06-03 06:47:05 51°18.912 2°52.579 20.8421 0.084931 0.446589 -0.965744
2010-06-03 06:47:10 51°18.93 2°52.581 20.8546 0.084931 0.446568 -0.965744
2010-06-03 06:47:15 51°18.949 2°52.583 20.8455 0.084931 0.446568 -1.000568
2010-06-03 06:47:20 51°18.968 2°52.585 20.8723 0.084931 0.446568 -1.000568
2010-06-03 06:47:25 51°18.987 2°52.587 20.8682 0.084931 0.446548 -0.965744
2010-06-03 06:47:30 51°19.005 2°52.588 20.8341 0.084931 0.446555 -0.965744
2010-06-03 06:47:35 51°19.024 2°52.59 20.8376 0.084931 0.446548 -0.965744
2010-06-03 06:47:40 51°19.043 2°52.592 20.8555 0.084931 0.446541 -0.965744
2010-06-03 06:47:45 51°19.062 2°52.593 20.8467 0.084931 0.446527 -1.000568
2010-06-03 06:47:50 51°19.081 2°52.595 20.8607 0.084931 0.446527 -1.000568
2010-06-03 06:47:55 51°19.099 2°52.598 20.859 0.084931 0.446521 -1.000568
2010-06-03 06:48:00 51°19.118 2°52.6 20.8583 0.084931 0.446507 -0.965744
2010-06-03 06:48:05 51°19.137 2°52.602 20.8538 0.084931 0.446507 -1.000568
2010-06-03 06:48:10 51°19.156 2°52.603 20.8619 0.084931 0.446514 -0.965744
2010-06-03 06:48:15 51°19.175 2°52.605 20.8683 0.084931 0.446493 -1.000568
2010-06-03 06:48:20 51°19.194 2°52.607 20.8452 0.084931 0.446493 -1.000568
2010-06-03 06:48:25 51°19.212 2°52.609 20.8593 0.084931 0.446493 -0.965744
2010-06-03 06:48:30 51°19.231 2°52.61 20.8592 0.084931 0.44648 -0.965744
2010-06-03 06:48:35 51°19.25 2°52.612 20.8596 0.084931 0.446466 -0.965744
2010-06-03 06:48:40 51°19.269 2°52.614 20.8671 0.084931 0.446466 -1.000568
2010-06-03 06:48:45 51°19.288 2°52.616 20.8663 0.084931 0.446459 -1.000568
2010-06-03 06:48:50 51°19.307 2°52.617 20.83 0.084931 0.446459 -1.000568
2010-06-03 06:48:55 51°19.326 2°52.619 20.8636 0.084931 0.446466 -1.000568
2010-06-03 06:49:00 51°19.345 2°52.621 20.8734 0.084931 0.446446 -0.965744
2010-06-03 06:49:05 51°19.364 2°52.623 20.8612 0.084931 0.446446 -0.965744
2010-06-03 06:49:10 51°19.383 2°52.625 20.8687 0.084931 0.446446 -0.965744
2010-06-03 06:49:15 51°19.402 2°52.627 20.86 0.084931 0.446439 -1.000568
2010-06-03 06:49:20 51°19.421 2°52.629 20.8677 0.084931 0.446439 -1.000568
2010-06-03 06:49:25 51°19.44 2°52.63 20.8712 0.084931 0.446446 -0.965744
2010-06-03 06:49:30 51°19.459 2°52.632 20.8642 0.084931 0.446432 -0.965744
2010-06-03 06:49:35 51°19.478 2°52.634 20.8454 0.084931 0.446419 -0.965744
2010-06-03 06:49:40 51°19.497 2°52.635 20.8683 0.084931 0.446425 -0.965744
2010-06-03 06:49:45 51°19.516 2°52.637 20.8722 0.084931 0.446412 -1.000568
2010-06-03 06:49:50 51°19.535 2°52.639 20.8677 0.084931 0.446412 -1.000568
2010-06-03 06:49:55 51°19.554 2°52.641 20.8679 0.084931 0.446405 -0.965744
2010-06-03 06:50:00 51°19.573 2°52.643 20.8827 0.084931 0.446398 -1.000568
2010-06-03 06:50:05 51°19.591 2°52.644 20.8671 0.084931 0.446398 -1.000568
2010-06-03 06:50:10 51°19.611 2°52.646 20.8836 0.084931 0.446405 -0.965744
2010-06-03 06:50:15 51°19.629 2°52.648 20.8517 0.084931 0.446385 -0.965744
2010-06-03 06:50:20 51°19.648 2°52.649 20.8744 0.084931 0.446385 -0.965744
2010-06-03 06:50:25 51°19.667 2°52.652 20.8745 0.084931 0.446391 -0.965744
2010-06-03 06:50:30 51°19.686 2°52.653 20.8618 0.084931 0.446385 -1.000568
2010-06-03 06:50:35 51°19.705 2°52.655 20.8564 0.084931 0.446378 -1.000568
2010-06-03 06:50:40 51°19.724 2°52.656 20.8489 0.084931 0.446378 -1.000568
2010-06-03 06:50:45 51°19.743 2°52.659 20.888 0.084931 0.446364 -0.965744
2010-06-03 06:50:50 51°19.762 2°52.661 20.8699 0.084931 0.446364 -0.965744
2010-06-03 06:50:55 51°19.781 2°52.663 20.8839 0.084931 0.446364 -0.965744
2010-06-03 06:51:00 51°19.8 2°52.665 20.8742 0.084931 0.446364 -1.000568
2010-06-03 06:51:05 51°19.819 2°52.667 20.8888 0.084931 0.446357 -0.965744
2010-06-03 06:51:10 51°19.837 2°52.669 20.8819 0.085035 0.446917 -0.965744
2010-06-03 06:51:15 51°19.856 2°52.671 20.8755 0.084931 0.446357 -0.965744
2010-06-03 06:51:20 51°19.875 2°52.673 20.8819 0.084931 0.446357 -0.965744
2010-06-03 06:51:25 51°19.894 2°52.675 20.8797 0.084931 0.446351 -0.965744
2010-06-03 06:51:30 51°19.913 2°52.677 20.8754 0.084931 0.446344 -0.965744
2010-06-03 06:51:35 51°19.932 2°52.679 20.8886 0.084931 0.446344 -0.965744
2010-06-03 06:51:40 51°19.95 2°52.681 20.8949 0.085035 0.446897 -0.965744
2010-06-03 06:51:45 51°19.969 2°52.684 20.8874 0.084931 0.446337 -1.000568
2010-06-03 06:51:50 51°19.988 2°52.686 20.8775 0.084931 0.446337 -1.000568
2010-06-03 06:51:55 51°20.007 2°52.688 20.899 0.085035 0.446897 -0.93092
2010-06-03 06:52:00 51°20.025 2°52.69 20.9006 0.084931 0.446344 -1.000568
2010-06-03 06:52:05 51°20.044 2°52.692 20.8493 0.084931 0.446323 -0.965744
2010-06-03 06:52:10 51°20.063 2°52.695 20.8675 0.084931 0.44633 -1.000568
2010-06-03 06:52:15 51°20.081 2°52.697 20.8161 0.084931 0.44633 -1.000568
2010-06-03 06:52:20 51°20.1 2°52.702 20.8634 0.084931 0.44633 -1.000568
2010-06-03 06:52:25 51°20.118 2°52.708 20.8425 0.084931 0.446283 -1.035392
2010-06-03 06:52:30 51°20.136 2°52.714 20.889 0.084931 0.44631 -0.93092
2010-06-03 06:52:35 51°20.154 2°52.723 20.8524 0.085035 0.446863 -0.965744
2010-06-03 06:52:40 51°20.172 2°52.731 20.8957 0.084931 0.446323 -0.965744
2010-06-03 06:52:45 51°20.19 2°52.74 20.8529 0.084931 0.446323 -1.000568
2010-06-03 06:52:50 51°20.208 2°52.748 20.8822 0.084931 0.446323 -1.000568
2010-06-03 06:52:55 51°20.226 2°52.759 20.8802 0.085035 0.44689 -0.965744
2010-06-03 06:53:00 51°20.244 2°52.768 20.8933 0.085035 0.446883 -1.000568
2010-06-03 06:53:05 51°20.261 2°52.78 20.8935 0.085035 0.446856 -1.000568
2010-06-03 06:53:10 51°20.279 2°52.79 20.9001 0.085035 0.446869 -1.000568
2010-06-03 06:53:15 51°20.297 2°52.801 20.8932 0.085035 0.446849 -0.965744
2010-06-03 06:53:20 51°20.314 2°52.812 20.8821 0.085035 0.446849 -0.965744
2010-06-03 06:53:25 51°20.332 2°52.823 20.9029 0.084931 0.446296 -0.965744
2010-06-03 06:53:30 51°20.35 2°52.834 20.8994 0.084931 0.446289 -1.000568
2010-06-03 06:53:35 51°20.367 2°52.845 20.906 0.085035 0.446856 -0.965744
2010-06-03 06:53:40 51°20.385 2°52.856 20.9063 0.085035 0.446849 -1.000568
2010-06-03 06:53:45 51°20.403 2°52.867 20.9036 0.085035 0.446849 -1.000568
2010-06-03 06:53:50 51°20.421 2°52.878 20.9084 0.085035 0.446849 -1.000568
2010-06-03 06:53:55 51°20.438 2°52.89 20.9062 0.085035 0.446835 -0.965744
2010-06-03 06:54:00 51°20.456 2°52.9 20.9095 0.084931 0.446276 -1.000568
2010-06-03 06:54:05 51°20.474 2°52.911 20.9153 0.084931 0.446269 -0.965744
2010-06-03 06:54:10 51°20.492 2°52.922 20.9049 0.085035 0.446829 -0.965744
2010-06-03 06:54:15 51°20.51 2°52.933 20.9144 0.085035 0.446835 -0.965744
2010-06-03 06:54:20 51°20.528 2°52.943 20.9166 0.085035 0.446835 -0.965744
2010-06-03 06:54:25 51°20.546 2°52.954 20.9203 0.085035 0.446829 -1.000568
2010-06-03 06:54:30 51°20.564 2°52.964 20.8817 0.085035 0.446829 -0.965744
2010-06-03 06:54:35 51°20.582 2°52.976 20.9321 0.085035 0.446815 -0.965744
2010-06-03 06:54:40 51°20.6 2°52.986 20.9175 0.085035 0.446815 -1.000568
2010-06-03 06:54:45 51°20.618 2°52.997 20.9308 0.085035 0.446808 -0.965744
2010-06-03 06:54:50 51°20.636 2°53.007 20.9011 0.085035 0.446808 -0.965744
2010-06-03 06:54:55 51°20.654 2°53.018 20.9338 0.085035 0.446822 -1.000568
2010-06-03 06:55:00 51°20.672 2°53.028 20.9206 0.085035 0.446808 -1.000568
2010-06-03 06:55:05 51°20.69 2°53.039 20.9267 0.085035 0.446822 -0.965744
2010-06-03 06:55:10 51°20.708 2°53.05 20.9135 0.085035 0.446822 -1.000568
2010-06-03 06:55:15 51°20.726 2°53.06 20.9326 0.085035 0.446815 -0.965744
2010-06-03 06:55:20 51°20.743 2°53.071 20.9173 0.085035 0.446815 -0.965744
2010-06-03 06:55:25 51°20.761 2°53.081 20.9253 0.085035 0.446815 -0.965744
2010-06-03 06:55:30 51°20.779 2°53.091 20.9081 0.085035 0.446808 -1.000568
2010-06-03 06:55:35 51°20.797 2°53.102 20.9337 0.085035 0.446808 -1.000568
2010-06-03 06:55:40 51°20.815 2°53.112 20.9005 0.085035 0.446808 -1.000568
2010-06-03 06:55:45 51°20.833 2°53.122 20.9262 0.084931 0.446242 -0.965744
2010-06-03 06:55:50 51°20.851 2°53.133 20.9284 0.084931 0.446242 -0.965744
2010-06-03 06:55:55 51°20.869 2°53.143 20.9117 0.085035 0.446794 -0.965744
2010-06-03 06:56:00 51°20.887 2°53.154 20.9214 0.085035 0.446801 -0.965744
2010-06-03 06:56:05 51°20.905 2°53.164 20.9349 0.085035 0.446801 -0.965744
2010-06-03 06:56:10 51°20.923 2°53.174 20.9334 0.085035 0.446794 -1.000568
2010-06-03 06:56:15 51°20.941 2°53.185 20.9225 0.085035 0.446794 -0.965744
2010-06-03 06:56:20 51°20.959 2°53.195 20.9324 0.085035 0.446794 -0.965744
2010-06-03 06:56:25 51°20.977 2°53.206 20.9259 0.085035 0.446788 -1.000568
2010-06-03 06:56:30 51°20.995 2°53.216 20.9176 0.085035 0.446794 -0.965744
2010-06-03 06:56:35 51°21.013 2°53.226 20.9424 0.085035 0.446788 -0.965744
2010-06-03 06:56:40 51°21.031 2°53.237 20.9185 0.085035 0.446774 -1.000568
2010-06-03 06:56:45 51°21.049 2°53.247 20.9397 0.085035 0.446788 -0.965744
2010-06-03 06:56:50 51°21.066 2°53.258 20.9214 0.085035 0.446788 -0.965744
2010-06-03 06:56:55 51°21.084 2°53.267 20.9368 0.085035 0.446781 -1.000568
2010-06-03 06:57:00 51°21.102 2°53.278 20.9279 0.085035 0.446788 -0.965744
2010-06-03 06:57:05 51°21.12 2°53.288 20.9417 0.085035 0.446781 -1.000568
2010-06-03 06:57:10 51°21.138 2°53.298 20.9156 0.085035 0.446781 -1.000568
2010-06-03 06:57:15 51°21.156 2°53.307 20.9423 0.085035 0.446774 -0.965744
2010-06-03 06:57:20 51°21.174 2°53.318 20.9332 0.085035 0.446774 -0.965744
2010-06-03 06:57:25 51°21.192 2°53.328 20.9474 0.085035 0.446767 -1.000568
2010-06-03 06:57:30 51°21.21 2°53.337 20.9558 0.085035 0.44676 -0.965744
2010-06-03 06:57:35 51°21.228 2°53.346 20.9474 0.085035 0.446767 -0.965744
2010-06-03 06:57:40 51°21.246 2°53.355 20.963 0.085035 0.446774 -1.000568
2010-06-03 06:57:45 51°21.264 2°53.363 20.9283 0.085035 0.446781 -1.000568
2010-06-03 06:57:50 51°21.282 2°53.371 20.9678 0.085035 0.446781 -1.000568
2010-06-03 06:57:55 51°21.301 2°53.378 20.924 0.085035 0.44676 -0.965744
2010-06-03 06:58:00 51°21.319 2°53.385 20.816 0.085035 0.446774 -1.000568
2010-06-03 06:58:05 51°21.337 2°53.393 18.9512 0.085035 0.446747 -1.000568
2010-06-03 06:58:10 51°21.356 2°53.4 16.0226 0.084931 0.445916 -1.000568
2010-06-03 06:58:15 51°21.374 2°53.407 15.3581 0.170714 0.912514 -0.965744
2010-06-03 06:58:20 51°21.393 2°53.414 14.9792 0.170714 0.912514 -0.965744
2010-06-03 06:58:25 51°21.411 2°53.42 14.5082 0.174985 0.944784 -0.687152
2010-06-03 06:58:30 51°21.43 2°53.427 14.4189 1.42046 8.750414 -0.269263
2010-06-03 06:58:35 51°21.448 2°53.434 14.2779 2.062944 13.245294 0.148626
2010-06-03 06:58:40 51°21.467 2°53.441 14.2259 2.168502 14.224073 1.402292
2010-06-03 06:58:45 51°21.485 2°53.448 14.0974 2.446196 16.692086 2.516661
2010-06-03 06:58:50 51°21.504 2°53.455 14.1131 2.446196 16.692086 2.516661
2010-06-03 06:58:55 51°21.522 2°53.462 14.0366 3.398412 25.045473 2.621133
2010-06-03 06:59:00 51°21.54 2°53.469 13.9872 3.836011 29.477932 2.238069
2010-06-03 06:59:05 51°21.559 2°53.475 14.0056 3.900044 30.466617 2.029124
2010-06-03 06:59:10 51°21.577 2°53.482 13.9827 3.896781 30.878999 1.889828
2010-06-03 06:59:15 51°21.596 2°53.489 13.9658 3.880014 31.004357 1.889828
2010-06-03 06:59:20 51°21.614 2°53.496 13.9349 3.880014 31.004357 1.889828
2010-06-03 06:59:25 51°21.633 2°53.503 13.9886 3.856812 31.041078 1.855004
2010-06-03 06:59:30 51°21.651 2°53.51 13.9529 3.836142 31.033229 1.82018
2010-06-03 06:59:35 51°21.67 2°53.518 13.9282 3.819584 30.965663 1.82018
2010-06-03 06:59:40 51°21.688 2°53.526 13.969 3.805769 30.933573 1.750532
2010-06-03 06:59:45 51°21.706 2°53.534 13.8312 3.793219 30.884311 1.680884
2010-06-03 06:59:50 51°21.725 2°53.541 13.8294 3.793219 30.884311 1.680884
2010-06-03 06:59:55 51°21.743 2°53.549 13.8307 3.788684 30.87723 1.715708
2010-06-03 07:00:00 51°21.762 2°53.557 13.8195 3.782251 30.839551 1.611236
2010-06-03 07:00:05 51°21.78 2°53.564 13.8178 3.780564 30.845512 1.680884
2010-06-03 07:00:10 51°21.799 2°53.572 13.7797 3.772865 30.816355 1.64606
2010-06-03 07:00:15 51°21.817 2°53.579 13.8363 3.771916 30.818684 1.611236
2010-06-03 07:00:20 51°21.836 2°53.586 13.823 3.771916 30.818684 1.611236
2010-06-03 07:00:25 51°21.854 2°53.594 13.7898 3.771179 30.849146 1.576412
2010-06-03 07:00:30 51°21.873 2°53.602 13.7958 3.765695 30.837071 1.576412
2010-06-03 07:00:35 51°21.891 2°53.609 13.7715 3.756942 30.787242 1.64606
2010-06-03 07:00:40 51°21.909 2°53.617 13.8182 3.759368 30.824018 1.64606
2010-06-03 07:00:45 51°21.928 2°53.625 13.7786 3.755677 30.803806 1.611236
2010-06-03 07:00:50 51°21.946 2°53.632 13.7492 3.755677 30.803806 1.611236
2010-06-03 07:00:55 51°21.965 2°53.64 13.7482 3.751142 30.776496 1.64606
2010-06-03 07:01:00 51°21.983 2°53.647 13.7571 3.750088 30.774819 1.64606
2010-06-03 07:01:05 51°22.002 2°53.655 13.7559 3.748084 30.762645 1.64606
2010-06-03 07:01:10 51°22.02 2°53.663 13.7478 3.741651 30.716755 1.64606
2010-06-03 07:01:15 51°22.039 2°53.67 13.75 3.743655 30.733825 1.576412
2010-06-03 07:01:20 51°22.057 2°53.679 13.7203 3.743655 30.733825 1.576412
2010-06-03 07:01:25 51°22.076 2°53.686 13.7843 3.74376 30.743954 1.611236
2010-06-03 07:01:30 51°22.094 2°53.694 13.7515 3.74239 30.742439 1.611236
2010-06-03 07:01:35 51°22.113 2°53.701 13.7403 3.739964 30.7319 1.611236
2010-06-03 07:01:40 51°22.131 2°53.709 13.7525 3.735429 30.692913 1.576412
2010-06-03 07:01:45 51°22.149 2°53.717 13.7276 3.735324 30.710287 1.576412
2010-06-03 07:01:50 51°22.168 2°53.724 13.7303 3.735324 30.710287 1.576412
2010-06-03 07:01:55 51°22.187 2°53.731 13.7094 3.736695 30.729553 1.576412
2010-06-03 07:02:00 51°22.205 2°53.737 13.7219 3.735641 30.724807 1.576412
2010-06-03 07:02:05 51°22.223 2°53.745 13.6965 3.73659 30.72308 1.611236
2010-06-03 07:02:10 51°22.242 2°53.752 13.6972 3.728997 30.656725 1.506764
2010-06-03 07:02:15 51°22.26 2°53.761 13.667 3.730262 30.676237 1.506764
2010-06-03 07:02:20 51°22.279 2°53.769 13.6807 3.730262 30.676237 1.506764
2010-06-03 07:02:25 51°22.298 2°53.777 13.6541 3.73891 30.762062 1.541588
2010-06-03 07:02:30 51°22.316 2°53.784 13.6593 3.736379 30.737683 1.576412
2010-06-03 07:02:35 51°22.335 2°53.791 13.6492 3.735746 30.744763 1.611236
2010-06-03 07:02:40 51°22.353 2°53.798 13.652 3.733743 30.731943 1.64606
2010-06-03 07:02:45 51°22.372 2°53.806 13.6649 3.732688 30.72842 1.64606
2010-06-03 07:02:50 51°22.39 2°53.814 13.6451 3.732688 30.72842 1.64606
2010-06-03 07:02:55 51°22.409 2°53.822 13.6723 3.733532 30.744729 1.64606
2010-06-03 07:03:00 51°22.428 2°53.83 13.6474 3.733005 30.74972 1.64606
2010-06-03 07:03:05 51°22.446 2°53.838 13.6519 3.733638 30.765956 1.680884
2010-06-03 07:03:10 51°22.465 2°53.846 13.6608 3.732478 30.769461 1.680884
2010-06-03 07:03:15 51°22.483 2°53.854 13.6804 3.733427 30.777546 1.680884
2010-06-03 07:03:20 51°22.502 2°53.861 13.6598 3.733427 30.777546 1.680884
2010-06-03 07:03:25 51°22.521 2°53.868 13.6523 3.732794 30.778511 1.680884
2010-06-03 07:03:30 51°22.539 2°53.875 13.6648 3.728892 30.74274 1.715708
2010-06-03 07:03:35 51°22.558 2°53.883 13.6566 3.731318 30.764361 1.611236
2010-06-03 07:03:40 51°22.576 2°53.891 13.6408 3.727838 30.744133 1.611236
2010-06-03 07:03:45 51°22.595 2°53.898 13.6455 3.732056 30.777895 1.576412
2010-06-03 07:03:50 51°22.613 2°53.906 13.6195 3.732056 30.777895 1.576412
2010-06-03 07:03:55 51°22.632 2°53.914 13.6176 3.730263 30.760226 1.611236
2010-06-03 07:04:00 51°22.65 2°53.921 13.6148 3.728787 30.73993 1.611236
2010-06-03 07:04:05 51°22.669 2°53.929 13.6188 3.730263 30.754693 1.611236
2010-06-03 07:04:10 51°22.687 2°53.936 13.6188 3.730685 30.763479 1.611236
2010-06-03 07:04:15 51°22.706 2°53.944 13.6375 3.711703 30.595008 1.611236
2010-06-03 07:04:20 51°22.725 2°53.951 13.6429 3.711703 30.595008 1.611236
2010-06-03 07:04:25 51°22.743 2°53.958 13.645 3.730053 30.774902 1.680884
2010-06-03 07:04:30 51°22.762 2°53.966 13.6482 3.731635 30.79311 1.64606
2010-06-03 07:04:35 51°22.78 2°53.973 13.6561 3.727627 30.765576 1.64606
2010-06-03 07:04:40 51°22.799 2°53.98 13.6485 3.727311 30.766982 1.611236
2010-06-03 07:04:45 51°22.818 2°53.988 13.6638 3.726151 30.757567 1.611236
2010-06-03 07:04:50 51°22.837 2°53.995 13.6593 3.726151 30.757567 1.611236
2010-06-03 07:04:55 51°22.855 2°54.003 13.6396 3.723831 30.738121 1.576412
2010-06-03 07:05:00 51°22.874 2°54.01 13.6589 3.725624 30.745958 1.576412
2010-06-03 07:05:05 51°22.892 2°54.017 13.6539 3.725202 30.734093 1.576412
2010-06-03 07:05:10 51°22.911 2°54.025 13.6393 3.727944 30.7574 1.541588
2010-06-03 07:05:15 51°22.93 2°54.032 13.6618 3.7271 30.753967 1.541588
2010-06-03 07:05:20 51°22.949 2°54.04 13.6578 3.7271 30.753967 1.541588
2010-06-03 07:05:25 51°22.967 2°54.047 13.6504 3.726573 30.743594 1.506764
2010-06-03 07:05:30 51°22.986 2°54.055 13.6574 3.725729 30.734012 1.47194
2010-06-03 07:05:35 51°23.005 2°54.063 13.6476 3.7271 30.754582 1.506764
2010-06-03 07:05:40 51°23.024 2°54.07 13.658 3.725518 30.735766 1.576412
2010-06-03 07:05:45 51°23.042 2°54.078 13.6466 3.725518 30.734536 1.541588
2010-06-03 07:05:50 51°23.061 2°54.085 13.6559 3.725518 30.734536 1.541588
2010-06-03 07:05:55 51°23.08 2°54.092 13.6573 3.724991 30.730314 1.47194
2010-06-03 07:06:00 51°23.099 2°54.1 13.6632 3.726045 30.744907 1.47194
2010-06-03 07:06:05 51°23.118 2°54.108 13.6617 3.726362 30.74904 1.576412
2010-06-03 07:06:10 51°23.137 2°54.115 13.6686 3.727733 30.757311 1.541588
2010-06-03 07:06:15 51°23.156 2°54.123 13.6693 3.725729 30.735856 1.506764
2010-06-03 07:06:20 51°23.174 2°54.131 13.6642 3.725729 30.735856 1.506764
2010-06-03 07:06:25 51°23.193 2°54.138 13.6646 3.725834 30.741127 1.541588
2010-06-03 07:06:30 51°23.212 2°54.146 13.6619 3.726467 30.748162 1.541588
2010-06-03 07:06:35 51°23.231 2°54.152 13.6598 3.725202 30.732864 1.506764
2010-06-03 07:06:40 51°23.25 2°54.157 13.6656 3.723303 30.714838 1.541588
2010-06-03 07:06:45 51°23.27 2°54.163 13.6656 3.723831 30.722132 1.47194
2010-06-03 07:06:50 51°23.289 2°54.168 13.6743 3.723831 30.722132 1.47194
2010-06-03 07:06:55 51°23.308 2°54.173 13.6609 3.723831 30.719674 1.506764
2010-06-03 07:07:00 51°23.327 2°54.177 13.6603 3.726889 30.747726 1.47194
2010-06-03 07:07:05 51°23.346 2°54.182 13.6632 3.725729 30.739545 1.47194
2010-06-03 07:07:10 51°23.366 2°54.186 13.6604 3.724569 30.723372 1.506764
2010-06-03 07:07:15 51°23.385 2°54.191 13.6618 3.726573 30.746054 1.541588
2010-06-03 07:07:20 51°23.404 2°54.195 13.6566 3.726573 30.746054 1.541588
2010-06-03 07:07:25 51°23.423 2°54.199 13.6588 3.723831 30.719674 1.541588
2010-06-03 07:07:30 51°23.442 2°54.204 13.6683 3.725202 30.726717 1.541588
2010-06-03 07:07:35 51°23.461 2°54.208 13.6695 3.726256 30.741922 1.541588
2010-06-03 07:07:40 51°23.481 2°54.213 13.6635 3.723514 30.716773 1.541588
2010-06-03 07:07:45 51°23.5 2°54.217 13.664 3.725307 30.733831 1.541588
2010-06-03 07:07:50 51°23.519 2°54.222 13.6582 3.725307 30.733831 1.541588
2010-06-03 07:07:55 51°23.538 2°54.225 13.6715 3.723303 30.71791 1.576412
2010-06-03 07:08:00 51°23.558 2°54.23 13.6904 3.723303 30.714224 1.541588
2010-06-03 07:08:05 51°23.577 2°54.234 13.6678 3.722249 30.705166 1.576412
2010-06-03 07:08:10 51°23.596 2°54.238 13.6673 3.72362 30.719583 1.576412
2010-06-03 07:08:15 51°23.615 2°54.242 13.6568 3.72478 30.730838 1.611236
2010-06-03 07:08:20 51°23.634 2°54.246 13.6633 3.72478 30.730838 1.611236
2010-06-03 07:08:25 51°23.653 2°54.251 13.6574 3.724569 30.72583 1.611236
2010-06-03 07:08:30 51°23.673 2°54.255 13.6611 3.7213 30.700146 1.611236
2010-06-03 07:08:35 51°23.692 2°54.259 13.6614 3.722354 30.709819 1.611236
2010-06-03 07:08:40 51°23.711 2°54.264 13.6603 3.723092 30.711675 1.611236
2010-06-03 07:08:45 51°23.73 2°54.269 13.6559 3.7213 30.70076 1.611236
2010-06-03 07:08:50 51°23.749 2°54.273 13.6537 3.7213 30.70076 1.611236
2010-06-03 07:08:55 51°23.768 2°54.278 13.6551 3.722249 30.708237 1.64606
2010-06-03 07:09:00 51°23.787 2°54.283 13.6591 3.724253 30.724772 1.64606
2010-06-03 07:09:05 51°23.807 2°54.287 13.6691 3.72246 30.710172 1.680884
2010-06-03 07:09:10 51°23.826 2°54.292 13.6549 3.720561 30.690306 1.64606
2010-06-03 07:09:15 51°23.845 2°54.296 13.652 3.720983 30.699087 1.64606
2010-06-03 07:09:20 51°23.864 2°54.301 13.6448 3.720983 30.699087 1.64606
2010-06-03 07:09:25 51°23.884 2°54.305 13.6496 3.720034 30.69898 1.64606
2010-06-03 07:09:30 51°23.903 2°54.31 13.641 3.722249 30.711924 1.680884
2010-06-03 07:09:35 51°23.922 2°54.314 13.6378 3.720245 30.700301 1.680884
2010-06-03 07:09:40 51°23.941 2°54.318 13.6439 3.723409 30.723795 1.64606
2010-06-03 07:09:45 51°23.961 2°54.322 13.6613 3.720456 30.699778 1.680884
2010-06-03 07:09:50 51°23.98 2°54.326 13.651 3.720456 30.699778 1.680884
2010-06-03 07:09:55 51°23.999 2°54.33 13.6489 3.719191 30.688783 1.64606
2010-06-03 07:10:00 51°24.018 2°54.335 13.6528 3.718874 30.684653 1.64606
2010-06-03 07:10:05 51°24.037 2°54.34 13.6478 3.718874 30.687723 1.680884
2010-06-03 07:10:10 51°24.057 2°54.344 13.6599 3.718031 30.681826 1.64606
2010-06-03 07:10:15 51°24.076 2°54.349 13.641 3.718136 30.684636 1.64606
2010-06-03 07:10:20 51°24.095 2°54.353 13.6422 3.718136 30.684636 1.64606
2010-06-03 07:10:25 51°24.114 2°54.358 13.6252 3.718558 30.690349 1.64606
2010-06-03 07:10:30 51°24.133 2°54.362 13.6268 3.717503 30.678216 1.64606
2010-06-03 07:10:35 51°24.152 2°54.366 13.5966 3.72014 30.69749 1.576412
2010-06-03 07:10:40 51°24.171 2°54.37 13.5903 3.719507 30.691686 1.541588
2010-06-03 07:10:45 51°24.191 2°54.375 13.5881 3.717609 30.674886 1.576412
2010-06-03 07:10:50 51°24.21 2°54.379 13.5859 3.717609 30.674886 1.576412
2010-06-03 07:10:55 51°24.229 2°54.383 13.5799 3.710543 30.617434 1.541588
2010-06-03 07:11:00 51°24.249 2°54.387 13.5851 3.720667 30.713391 1.611236
2010-06-03 07:11:05 51°24.268 2°54.392 13.5688 3.719085 30.705021 1.541588
2010-06-03 07:11:10 51°24.287 2°54.396 13.5779 3.7213 30.729042 1.541588
2010-06-03 07:11:15 51°24.306 2°54.399 13.5709 3.7213 30.743203 1.576412
2010-06-03 07:11:20 51°24.326 2°54.405 13.5559 3.7213 30.743203 1.576412
2010-06-03 07:11:25 51°24.346 2°54.408 13.5428 3.722671 30.762577 1.541588
2010-06-03 07:11:30 51°24.364 2°54.413 13.5277 3.680067 30.373934 1.541588
2010-06-03 07:11:35 51°24.383 2°54.418 13.5271 3.721933 30.765661 1.541588
2010-06-03 07:11:40 51°24.402 2°54.423 13.5225 3.720035 30.752533 1.541588
2010-06-03 07:11:45 51°24.421 2°54.427 13.5111 3.722988 30.782143 1.576412
2010-06-03 07:11:50 51°24.441 2°54.432 13.5042 3.722988 30.782143 1.576412
2010-06-03 07:11:55 51°24.46 2°54.437 13.4933 3.721828 30.772096 1.47194
2010-06-03 07:12:00 51°24.479 2°54.441 13.4973 3.720774 30.773512 1.506764
2010-06-03 07:12:05 51°24.498 2°54.446 13.4966 3.722145 30.791061 1.437116
2010-06-03 07:12:10 51°24.518 2°54.451 13.4752 3.723199 30.813748 1.47194
2010-06-03 07:12:15 51°24.537 2°54.455 13.4924 3.721723 30.806348 1.47194
2010-06-03 07:12:20 51°24.556 2°54.459 13.4809 3.721723 30.806348 1.47194
2010-06-03 07:12:25 51°24.576 2°54.464 13.4903 3.724676 30.834764 1.47194
2010-06-03 07:12:30 51°24.595 2°54.469 13.4873 3.72436 30.843002 1.402292
2010-06-03 07:12:35 51°24.614 2°54.473 13.4993 3.72436 30.850441 1.47194
2010-06-03 07:12:40 51°24.633 2°54.478 13.5073 3.725415 30.862015 1.506764
2010-06-03 07:12:45 51°24.653 2°54.482 13.518 3.723938 30.85834 1.47194
2010-06-03 07:12:50 51°24.672 2°54.486 13.5202 3.723938 30.85834 1.47194
2010-06-03 07:12:55 51°24.691 2°54.491 13.5266 3.724149 30.86649 1.506764
2010-06-03 07:13:00 51°24.711 2°54.495 13.5512 3.724466 30.861337 1.506764
2010-06-03 07:13:05 51°24.73 2°54.5 13.5495 3.721407 30.837502 1.506764
2010-06-03 07:13:10 51°24.749 2°54.505 13.5565 3.718138 30.808003 1.506764
2010-06-03 07:13:15 51°24.769 2°54.509 13.5692 3.723516 30.857556 1.506764
2010-06-03 07:13:20 51°24.788 2°54.514 13.5688 3.723516 30.857556 1.506764
2010-06-03 07:13:25 51°24.807 2°54.518 13.5657 3.718032 30.797123 1.506764
2010-06-03 07:13:30 51°24.827 2°54.523 13.5566 3.716978 30.77875 1.576412
2010-06-03 07:13:35 51°24.846 2°54.527 13.5415 3.716872 30.774069 1.576412
2010-06-03 07:13:40 51°24.865 2°54.532 13.5456 3.716028 30.758269 1.541588
2010-06-03 07:13:45 51°24.885 2°54.536 13.5417 3.716977 30.762678 1.576412
2010-06-03 07:13:50 51°24.904 2°54.541 13.5373 3.716977 30.762678 1.576412
2010-06-03 07:13:55 51°24.923 2°54.546 13.5394 3.713392 30.717352 1.576412
2010-06-03 07:14:00 51°24.943 2°54.55 13.5311 3.715501 30.736132 1.541588
2010-06-03 07:14:05 51°24.962 2°54.555 13.5367 3.718032 30.753854 1.576412
2010-06-03 07:14:10 51°24.982 2°54.559 13.5435 3.719825 30.772812 1.541588
2010-06-03 07:14:15 51°25.001 2°54.564 13.5461 3.718981 30.77061 1.611236
2010-06-03 07:14:20 51°25.02 2°54.568 13.5674 3.718981 30.77061 1.611236
2010-06-03 07:14:25 51°25.04 2°54.573 13.5624 3.718559 30.769819 1.541588
2010-06-03 07:14:30 51°25.059 2°54.576 13.5529 3.719403 30.776344 1.576412
2010-06-03 07:14:35 51°25.079 2°54.58 13.558 3.722461 30.813761 1.541588
2010-06-03 07:14:40 51°25.098 2°54.584 13.568 3.722989 30.817376 1.541588
2010-06-03 07:14:45 51°25.118 2°54.589 13.5689 3.721618 30.806615 1.576412
2010-06-03 07:14:50 51°25.137 2°54.592 13.5705 3.721618 30.806615 1.576412
2010-06-03 07:14:55 51°25.156 2°54.597 13.5511 3.720352 30.792495 1.576412
2010-06-03 07:15:00 51°25.176 2°54.6 13.536 3.721934 30.802103 1.576412
2010-06-03 07:15:05 51°25.195 2°54.605 13.5163 3.721407 30.789833 1.541588
2010-06-03 07:15:10 51°25.215 2°54.609 13.5094 3.72109 30.781362 1.541588
2010-06-03 07:15:15 51°25.234 2°54.613 13.4929 3.719825 30.770341 1.506764
2010-06-03 07:15:20 51°25.253 2°54.617 13.495 3.719825 30.770341 1.506764
2010-06-03 07:15:25 51°25.273 2°54.621 13.4918 3.721406 30.783654 1.541588
2010-06-03 07:15:30 51°25.292 2°54.625 13.4837 3.719508 30.766197 1.541588
2010-06-03 07:15:35 51°25.311 2°54.629 13.4762 3.721828 30.790623 1.541588
2010-06-03 07:15:40 51°25.331 2°54.632 13.4795 3.72109 30.793104 1.611236
2010-06-03 07:15:45 51°25.35 2°54.636 13.4754 3.715923 30.757917 1.64606
2010-06-03 07:15:50 51°25.369 2°54.639 13.4765 3.715923 30.757917 1.64606
2010-06-03 07:15:55 51°25.389 2°54.643 13.4735 3.71761 30.782719 1.680884
2010-06-03 07:16:00 51°25.408 2°54.647 13.4678 3.720036 30.820533 1.715708
2010-06-03 07:16:05 51°25.427 2°54.65 13.4602 3.715923 30.788222 1.680884
2010-06-03 07:16:10 51°25.446 2°54.654 13.4488 3.71972 30.827536 1.680884
2010-06-03 07:16:15 51°25.466 2°54.657 13.4424 3.71972 30.831877 1.64606
2010-06-03 07:16:20 51°25.485 2°54.661 13.4216 3.71972 30.831877 1.64606
2010-06-03 07:16:25 51°25.504 2°54.664 13.4186 3.719509 30.822493 1.64606
2010-06-03 07:16:30 51°25.523 2°54.668 13.3989 3.721618 30.849991 1.64606
2010-06-03 07:16:35 51°25.543 2°54.672 13.3815 3.720353 30.842671 1.611236
2010-06-03 07:16:40 51°25.562 2°54.676 13.378 3.717189 30.816612 1.611236
2010-06-03 07:16:45 51°25.581 2°54.68 13.3649 3.715502 30.80354 1.680884
2010-06-03 07:16:50 51°25.6 2°54.683 13.3583 3.715502 30.80354 1.680884
2010-06-03 07:16:55 51°25.62 2°54.687 13.3561 3.721197 30.866596 1.64606
2010-06-03 07:17:00 51°25.639 2°54.69 13.3469 3.716873 30.839761 1.715708
2010-06-03 07:17:05 51°25.658 2°54.695 13.3459 3.716662 30.845893 1.680884
2010-06-03 07:17:10 51°25.677 2°54.698 13.3367 3.71719 30.856976 1.680884
2010-06-03 07:17:15 51°25.696 2°54.702 13.3286 3.72531 30.945031 1.64606
2010-06-03 07:17:20 51°25.716 2°54.705 13.3234 3.72531 30.945031 1.64606
2010-06-03 07:17:25 51°25.735 2°54.708 13.3161 3.721725 30.921891 1.680884
2010-06-03 07:17:30 51°25.754 2°54.712 13.3094 3.725522 30.969461 1.611236
2010-06-03 07:17:35 51°25.773 2°54.715 13.3049 3.72394 30.957338 1.576412
2010-06-03 07:17:40 51°25.792 2°54.719 13.2995 3.72278 30.954112 1.576412
2010-06-03 07:17:45 51°25.811 2°54.722 13.3018 3.72278 30.954112 1.576412
2010-06-03 07:17:50 51°25.83 2°54.726 13.3029 3.726576 30.997351 1.576412
2010-06-03 07:17:55 51°25.85 2°54.729 13.2918 3.724995 30.985849 1.47194
2010-06-03 07:18:00 51°25.869 2°54.733 13.2934 3.727948 31.029458 1.47194
2010-06-03 07:18:05 51°25.888 2°54.736 13.2961 3.724257 30.992792 1.506764
2010-06-03 07:18:10 51°25.907 2°54.74 13.2888 3.726999 31.029453 1.47194
2010-06-03 07:18:15 51°25.926 2°54.744 13.2938 3.724468 31.01041 1.402292
2010-06-03 07:18:20 51°25.945 2°54.748 13.2957 3.724468 31.01041 1.402292
2010-06-03 07:18:25 51°25.964 2°54.751 13.2991 3.722886 31.000153 1.367467
2010-06-03 07:18:30 51°25.983 2°54.755 13.2904 3.727843 31.050446 1.367467
2010-06-03 07:18:35 51°26.002 2°54.759 13.2832 3.727737 31.049469 1.332643
2010-06-03 07:18:40 51°26.021 2°54.763 13.2796 3.727421 31.050935 1.367467
2010-06-03 07:18:45 51°26.04 2°54.766 13.2719 3.725944 31.039142 1.367467
2010-06-03 07:18:50 51°26.059 2°54.77 13.2727 3.725944 31.039142 1.367467
2010-06-03 07:18:55 51°26.079 2°54.774 13.2644 3.726788 31.04633 1.332643
2010-06-03 07:19:00 51°26.097 2°54.778 13.2463 3.726999 31.048912 1.297819
2010-06-03 07:19:05 51°26.117 2°54.782 13.2513 3.703376 30.830807 1.332643
2010-06-03 07:19:10 51°26.135 2°54.785 13.2628 3.729003 31.070618 1.332643
2010-06-03 07:19:15 51°26.155 2°54.789 13.2527 3.725101 31.037606 1.367467
2010-06-03 07:19:20 51°26.174 2°54.793 13.2507 3.725101 31.037606 1.367467
2010-06-03 07:19:25 51°26.193 2°54.797 13.2582 3.71909 30.985682 1.332643
2010-06-03 07:19:30 51°26.212 2°54.8 13.2589 3.725312 31.046471 1.367467
2010-06-03 07:19:35 51°26.231 2°54.805 13.245 3.724046 31.042912 1.47194
2010-06-03 07:19:40 51°26.25 2°54.809 13.2449 3.725101 31.05143 1.332643
2010-06-03 07:19:45 51°26.269 2°54.813 13.2402 3.72373 31.046265 1.332643
2010-06-03 07:19:50 51°26.288 2°54.817 13.2352 3.72373 31.046265 1.332643
2010-06-03 07:19:55 51°26.307 2°54.821 13.235 3.729847 31.10613 1.262995
2010-06-03 07:20:00 51°26.326 2°54.824 13.2295 3.728687 31.096631 1.228171
2010-06-03 07:20:05 51°26.345 2°54.828 13.2262 3.730796 31.116193 1.262995
2010-06-03 07:20:10 51°26.363 2°54.832 13.2276 3.723414 31.045218 1.262995
2010-06-03 07:20:15 51°26.382 2°54.836 13.2227 3.729741 31.110193 1.228171
2010-06-03 07:20:20 51°26.401 2°54.841 13.2112 3.729741 31.110193 1.228171
2010-06-03 07:20:25 51°26.42 2°54.844 13.2073 3.730374 31.115432 1.193347
2010-06-03 07:20:30 51°26.439 2°54.849 13.1938 3.727632 31.095669 1.158523
2010-06-03 07:20:35 51°26.458 2°54.852 13.1862 3.732484 31.144462 1.193347
2010-06-03 07:20:40 51°26.476 2°54.857 13.1911 3.728582 31.110777 1.123699
2010-06-03 07:20:45 51°26.495 2°54.861 13.1819 3.726156 31.093944 1.088875
2010-06-03 07:20:50 51°26.514 2°54.866 13.1823 3.726156 31.093944 1.088875
2010-06-03 07:20:55 51°26.533 2°54.87 13.1864 3.726789 31.098555 1.088875
2010-06-03 07:21:00 51°26.552 2°54.875 13.1937 3.726473 31.100662 1.054051
2010-06-03 07:21:05 51°26.571 2°54.879 13.1856 3.726684 31.115236 1.088875
2010-06-03 07:21:10 51°26.59 2°54.884 13.1866 3.728055 31.132386 1.054051
2010-06-03 07:21:15 51°26.609 2°54.888 13.1913 3.727211 31.130867 1.054051
2010-06-03 07:21:20 51°26.628 2°54.892 13.1935 3.727211 31.130867 1.054051
2010-06-03 07:21:25 51°26.647 2°54.896 13.1945 3.729426 31.156496 1.088875
2010-06-03 07:21:30 51°26.666 2°54.9 13.1856 3.72816 31.146635 1.123699
2010-06-03 07:21:35 51°26.685 2°54.904 13.1894 3.727106 31.141894 1.123699
2010-06-03 07:21:40 51°26.703 2°54.909 13.178 3.727 31.144707 1.088875
2010-06-03 07:21:45 51°26.722 2°54.913 13.1784 3.727 31.144707 1.088875
2010-06-03 07:21:50 51°26.742 2°54.917 13.1703 3.724153 31.113826 1.123699
2010-06-03 07:21:55 51°26.76 2°54.921 13.1734 3.723626 31.108928 1.123699
2010-06-03 07:22:00 51°26.78 2°54.925 13.1772 3.720567 31.079255 1.193347
2010-06-03 07:22:05 51°26.799 2°54.929 13.1815 3.714345 31.01895 1.193347
2010-06-03 07:22:10 51°26.818 2°54.933 13.1826 3.715822 31.035179 1.158523
2010-06-03 07:22:15 51°26.837 2°54.937 13.1818 3.716982 31.055408 1.158523
2010-06-03 07:22:20 51°26.856 2°54.941 13.1844 3.716982 31.055408 1.158523
2010-06-03 07:22:25 51°26.875 2°54.945 13.1808 3.713924 31.029518 1.088875
2010-06-03 07:22:30 51°26.894 2°54.949 13.187 3.710338 30.990548 1.123699
2010-06-03 07:22:35 51°26.913 2°54.952 13.1736 3.721728 31.10329 1.123699
2010-06-03 07:22:40 51°26.932 2°54.956 13.1722 3.716876 31.05632 1.088875
2010-06-03 07:22:45 51°26.951 2°54.959 13.1583 3.711393 31.004119 1.054051
2010-06-03 07:22:50 51°26.97 2°54.963 13.1498 3.711393 31.004119 1.054051
2010-06-03 07:22:55 51°26.99 2°54.967 13.1431 3.722993 31.109364 1.088875
2010-06-03 07:23:00 51°27.009 2°54.971 13.1339 3.72352 31.113001 1.123699
2010-06-03 07:23:05 51°27.028 2°54.975 13.1259 3.720884 31.092924 1.054051
2010-06-03 07:23:10 51°27.047 2°54.978 13.1161 3.726684 31.139238 1.054051
2010-06-03 07:23:15 51°27.066 2°54.982 13.1119 3.718142 31.066185 1.123699
2010-06-03 07:23:20 51°27.085 2°54.986 13.0984 3.718142 31.066185 1.123699
2010-06-03 07:23:25 51°27.104 2°54.99 13.0963 3.722677 31.111478 1.088875
2010-06-03 07:23:30 51°27.123 2°54.994 13.087 3.719935 31.094207 1.123699
2010-06-03 07:23:35 51°27.142 2°54.998 13.083 3.720779 31.110265 1.088875
2010-06-03 07:23:40 51°27.161 2°55.002 13.077 3.723732 31.145949 1.123699
2010-06-03 07:23:45 51°27.18 2°55.006 13.0703 3.72215 31.141997 1.193347
2010-06-03 07:23:50 51°27.2 2°55.01 13.0745 3.72215 31.141997 1.193347
2010-06-03 07:23:55 51°27.219 2°55.014 13.0674 3.725208 31.171721 1.123699
2010-06-03 07:24:00 51°27.238 2°55.018 13.0647 3.72447 31.170557 1.123699
2010-06-03 07:24:05 51°27.257 2°55.022 13.0603 3.725208 31.186943 1.123699
2010-06-03 07:24:10 51°27.276 2°55.026 13.0612 3.727529 31.21299 1.158523
2010-06-03 07:24:15 51°27.295 2°55.029 13.0675 3.720674 31.156774 1.123699
2010-06-03 07:24:20 51°27.314 2°55.034 13.056 3.720674 31.156774 1.123699
2010-06-03 07:24:25 51°27.333 2°55.038 13.0566 3.722678 31.188131 1.088875
2010-06-03 07:24:30 51°27.353 2°55.042 13.0607 3.729638 31.244715 1.123699
2010-06-03 07:24:35 51°27.372 2°55.046 13.0613 3.726369 31.219979 1.088875
2010-06-03 07:24:40 51°27.391 2°55.05 13.0616 3.72774 31.244843 1.088875
2010-06-03 07:24:45 51°27.41 2°55.053 13.0661 3.721518 31.183039 1.088875
2010-06-03 07:24:50 51°27.429 2°55.058 13.0681 3.721518 31.183039 1.088875
2010-06-03 07:24:55 51°27.448 2°55.062 13.0677 3.727107 31.245947 1.054051
2010-06-03 07:25:00 51°27.468 2°55.066 13.0733 3.722573 31.204308 0.984403
2010-06-03 07:25:05 51°27.487 2°55.069 13.0796 3.724998 31.221829 0.984403
2010-06-03 07:25:10 51°27.506 2°55.073 13.0816 3.722045 31.194943 0.984403
2010-06-03 07:25:15 51°27.525 2°55.077 13.0855 3.721307 31.19569 0.914755
2010-06-03 07:25:20 51°27.545 2°55.082 13.0797 3.721307 31.19569 0.914755
2010-06-03 07:25:25 51°27.564 2°55.085 13.0861 3.727318 31.249187 0.949579
2010-06-03 07:25:30 51°27.583 2°55.089 13.0895 3.729322 31.264047 0.914755
2010-06-03 07:25:35 51°27.602 2°55.093 13.0981 3.7289 31.257567 0.914755
2010-06-03 07:25:40 51°27.621 2°55.097 13.0958 3.728478 31.254908 0.914755
2010-06-03 07:25:45 51°27.64 2°55.101 13.0948 3.723205 31.201305 0.845107
2010-06-03 07:25:50 51°27.66 2°55.105 13.0954 3.723205 31.201305 0.845107
2010-06-03 07:25:55 51°27.679 2°55.108 13.0908 3.721412 31.175706 0.879931
2010-06-03 07:26:00 51°27.698 2°55.113 13.084 3.7289 31.244198 0.845107
2010-06-03 07:26:05 51°27.717 2°55.116 13.0815 3.728689 31.246687 0.775459
2010-06-03 07:26:10 51°27.736 2°55.12 13.0732 3.729849 31.249861 0.775459
2010-06-03 07:26:15 51°27.756 2°55.123 13.0766 3.730482 31.256394 0.810283
2010-06-03 07:26:20 51°27.775 2°55.128 13.0713 3.730482 31.256394 0.810283
2010-06-03 07:26:25 51°27.794 2°55.131 13.0604 3.725947 31.212235 0.810283
2010-06-03 07:26:30 51°27.813 2°55.135 13.0563 3.726474 31.212698 0.775459
2010-06-03 07:26:35 51°27.833 2°55.139 13.0601 3.724471 31.198481 0.740634
2010-06-03 07:26:40 51°27.852 2°55.144 13.0564 3.732485 31.269972 0.775459
2010-06-03 07:26:45 51°27.871 2°55.148 13.0501 3.730904 31.262234 0.775459
2010-06-03 07:26:50 51°27.89 2°55.152 13.0521 3.730904 31.262234 0.775459
2010-06-03 07:26:55 51°27.909 2°55.156 13.0496 3.733013 31.280617 0.810283
2010-06-03 07:27:00 51°27.929 2°55.16 13.0448 3.734279 31.305162 0.775459
2010-06-03 07:27:05 51°27.948 2°55.164 13.0424 3.736177 31.326691 0.740634
2010-06-03 07:27:10 51°27.967 2°55.168 13.0365 3.734173 31.314387 0.775459
2010-06-03 07:27:15 51°27.986 2°55.173 13.0373 3.736915 31.33613 0.775459
2010-06-03 07:27:20 51°28.006 2°55.177 13.0354 3.736915 31.33613 0.775459
2010-06-03 07:27:25 51°28.025 2°55.181 13.0348 3.737443 31.350632 0.740634
2010-06-03 07:27:30 51°28.044 2°55.185 13.038 3.737443 31.351271 0.775459
2010-06-03 07:27:35 51°28.064 2°55.188 13.0377 3.735544 31.33356 0.810283
2010-06-03 07:27:40 51°28.083 2°55.192 13.0397 3.738286 31.359782 0.775459
2010-06-03 07:27:45 51°28.102 2°55.196 13.0327 3.736915 31.348269 0.775459
2010-06-03 07:27:50 51°28.122 2°55.2 13.0405 3.736915 31.348269 0.775459
2010-06-03 07:27:55 51°28.141 2°55.204 13.0317 3.734806 31.332422 0.740634
2010-06-03 07:28:00 51°28.16 2°55.208 13.0305 3.736705 31.357809 0.775459
2010-06-03 07:28:05 51°28.18 2°55.213 13.0297 3.740079 31.38931 0.810283
2010-06-03 07:28:10 51°28.199 2°55.216 13.029 3.735228 31.344668 0.810283
2010-06-03 07:28:15 51°28.218 2°55.22 13.0285 3.737759 31.372132 0.70581
2010-06-03 07:28:20 51°28.238 2°55.224 13.0293 3.737759 31.372132 0.70581
2010-06-03 07:28:25 51°28.257 2°55.229 13.0313 3.735017 31.340781 0.810283
2010-06-03 07:28:30 51°28.276 2°55.233 13.0248 3.74029 31.383598 0.775459
2010-06-03 07:28:35 51°28.296 2°55.238 13.0278 3.736494 31.359678 0.775459
2010-06-03 07:28:40 51°28.315 2°55.242 13.0235 3.735439 31.349194 0.775459
2010-06-03 07:28:45 51°28.335 2°55.247 13.0269 3.735439 31.349194 0.775459
2010-06-03 07:28:50 51°28.354 2°55.251 13.0305 3.735228 31.349144 0.810283
2010-06-03 07:28:55 51°28.374 2°55.255 13.0302 3.738814 31.378777 0.775459
2010-06-03 07:29:00 51°28.393 2°55.26 13.0325 3.738181 31.37415 0.775459
2010-06-03 07:29:05 51°28.413 2°55.264 13.0315 3.738392 31.377399 0.810283
2010-06-03 07:29:10 51°28.432 2°55.268 13.0309 3.739552 31.390791 0.70581
2010-06-03 07:29:15 51°28.452 2°55.272 13.0302 3.737232 31.372329 0.740634
2010-06-03 07:29:20 51°28.472 2°55.277 13.0352 3.737232 31.372329 0.740634
2010-06-03 07:29:25 51°28.491 2°55.281 13.0349 3.738498 31.386708 0.740634
2010-06-03 07:29:30 51°28.511 2°55.285 13.036 3.73797 31.376021 0.740634
2010-06-03 07:29:35 51°28.53 2°55.29 13.0381 3.736283 31.362827 0.670986
2010-06-03 07:29:40 51°28.55 2°55.294 13.0372 3.737865 31.375037 0.670986
2010-06-03 07:29:45 51°28.57 2°55.298 13.049 3.741029 31.399452 0.670986
2010-06-03 07:29:50 51°28.589 2°55.303 13.0449 3.741029 31.399452 0.670986
2010-06-03 07:29:55 51°28.609 2°55.307 13.045 3.738708 31.383554 0.670986
2010-06-03 07:30:00 51°28.628 2°55.31 13.0366 3.73797 31.372821 0.636162
2010-06-03 07:30:05 51°28.648 2°55.311 13.0372 3.737021 31.36524 0.670986
2010-06-03 07:30:10 51°28.668 2°55.313 13.0365 3.736388 31.354216 0.670986
2010-06-03 07:30:15 51°28.687 2°55.313 13.0389 3.739763 31.383156 0.601338
2010-06-03 07:30:20 51°28.707 2°55.314 13.0361 3.739763 31.383156 0.601338
2010-06-03 07:30:25 51°28.726 2°55.313 13.0369 3.734595 31.333649 0.636162
2010-06-03 07:30:30 51°28.746 2°55.313 13.0254 3.734068 31.326812 0.566514
2010-06-03 07:30:35 51°28.765 2°55.312 13.0257 3.732697 31.31402 0.566514
2010-06-03 07:30:40 51°28.785 2°55.311 13.0096 3.737232 31.36401 0.53169
2010-06-03 07:30:45 51°28.804 2°55.31 13.0195 3.733646 31.328625 0.601338
2010-06-03 07:30:50 51°28.824 2°55.308 12.9946 3.733646 31.328625 0.601338
2010-06-03 07:30:55 51°28.843 2°55.307 12.9742 3.736388 31.354216 0.53169
2010-06-03 07:31:00 51°28.862 2°55.306 12.968 3.735334 31.34757 0.566514
2010-06-03 07:31:05 51°28.881 2°55.304 12.937 3.735334 31.350128 0.566514
2010-06-03 07:31:10 51°28.901 2°55.304 12.9282 3.731115 31.311392 0.566514
2010-06-03 07:31:15 51°28.92 2°55.302 12.9072 3.735334 31.360365 0.566514
2010-06-03 07:31:20 51°28.939 2°55.301 12.8815 3.735334 31.360365 0.566514
2010-06-03 07:31:25 51°28.958 2°55.3 12.8683 3.736177 31.364403 0.566514
2010-06-03 07:31:30 51°28.977 2°55.299 12.8513 3.735861 31.376175 0.53169
2010-06-03 07:31:35 51°28.997 2°55.298 12.8284 3.736916 31.393077 0.53169
2010-06-03 07:31:40 51°29.016 2°55.297 12.8303 3.746302 31.491732 0.496866
2010-06-03 07:31:45 51°29.035 2°55.296 12.811 3.741768 31.473767 0.496866
2010-06-03 07:31:50 51°29.055 2°55.295 12.7979 3.741768 31.473767 0.496866
2010-06-03 07:31:55 51°29.074 2°55.293 12.7919 3.744088 31.503207 0.496866
2010-06-03 07:32:00 51°29.093 2°55.292 12.7847 3.748201 31.5656 0.496866
2010-06-03 07:32:05 51°29.112 2°55.29 12.7933 3.751154 31.591973 0.53169
2010-06-03 07:32:10 51°29.131 2°55.289 12.7717 3.751788 31.630931 0.496866
2010-06-03 07:32:15 51°29.15 2°55.288 12.7678 3.751788 31.630931 0.496866
2010-06-03 07:32:20 51°29.17 2°55.287 12.7566 3.751893 31.642947 0.53169
2010-06-03 07:32:25 51°29.189 2°55.286 12.7502 3.750206 31.642038 0.53169
2010-06-03 07:32:30 51°29.208 2°55.284 12.7516 3.75105 31.668152 0.496866
2010-06-03 07:32:35 51°29.227 2°55.284 12.7374 3.750945 31.675615 0.496866
2010-06-03 07:32:40 51°29.246 2°55.282 12.741 3.752949 31.700301 0.496866
2010-06-03 07:32:45 51°29.265 2°55.281 12.732 3.751789 31.699167 0.462042
2010-06-03 07:32:50 51°29.284 2°55.28 12.7264 3.751789 31.699167 0.462042
2010-06-03 07:32:55 51°29.303 2°55.28 12.7234 3.752 31.714184 0.566514
2010-06-03 07:33:00 51°29.322 2°55.278 12.7251 3.754742 31.740625 0.496866
2010-06-03 07:33:05 51°29.341 2°55.278 12.7235 3.752949 31.733549 0.496866
2010-06-03 07:33:10 51°29.36 2°55.277 12.7308 3.753898 31.743131 0.496866
2010-06-03 07:33:15 51°29.379 2°55.276 12.7285 3.752527 31.740678 0.53169
2010-06-03 07:33:20 51°29.398 2°55.275 12.7227 3.752527 31.740678 0.53169
2010-06-03 07:33:25 51°29.417 2°55.274 12.7337 3.749153 31.710878 0.53169
2010-06-03 07:33:30 51°29.436 2°55.273 12.7224 3.75316 31.759049 0.496866
2010-06-03 07:33:35 51°29.455 2°55.272 12.7339 3.749891 31.732189 0.53169
2010-06-03 07:33:40 51°29.474 2°55.272 12.7352 3.753582 31.770868 0.496866
2010-06-03 07:33:45 51°29.492 2°55.271 12.7355 3.753371 31.764304 0.462042
2010-06-03 07:33:50 51°29.511 2°55.269 12.7329 3.753371 31.764304 0.462042
2010-06-03 07:33:55 51°29.53 2°55.269 12.7416 3.753793 31.772201 0.427218
2010-06-03 07:34:00 51°29.548 2°55.268 12.7473 3.753688 31.773824 0.392394
2010-06-03 07:34:05 51°29.567 2°55.267 12.7483 3.754953 31.779854 0.35757
2010-06-03 07:34:10 51°29.586 2°55.266 12.7422 3.755375 31.787099 0.322746
2010-06-03 07:34:15 51°29.605 2°55.265 12.7429 3.755375 31.787099 0.322746
2010-06-03 07:34:20 51°29.623 2°55.263 12.7462 3.752422 31.758636 0.322746
2010-06-03 07:34:25 51°29.642 2°55.263 12.7473 3.753266 31.761349 0.287922
2010-06-03 07:34:30 51°29.661 2°55.262 12.7524 3.752106 31.754349 0.287922
2010-06-03 07:34:35 51°29.68 2°55.261 12.7572 3.751895 31.750402 0.287922
2010-06-03 07:34:40 51°29.699 2°55.26 12.7563 3.752422 31.752098 0.253098
2010-06-03 07:34:45 51°29.717 2°55.259 12.7605 3.751157 31.738877 0.253098
2010-06-03 07:34:50 51°29.736 2°55.258 12.7669 3.751157 31.738877 0.253098
2010-06-03 07:34:55 51°29.755 2°55.257 12.7601 3.752949 31.755102 0.253098
2010-06-03 07:35:00 51°29.774 2°55.256 12.7633 3.752 31.746166 0.253098
2010-06-03 07:35:05 51°29.792 2°55.255 12.76 3.750629 31.727383 0.218274
2010-06-03 07:35:10 51°29.811 2°55.253 12.7552 3.753266 31.75612 0.253098
2010-06-03 07:35:15 51°29.83 2°55.252 12.7416 3.752 31.741593 0.218274
2010-06-03 07:35:20 51°29.849 2°55.251 12.741 3.752 31.741593 0.218274
2010-06-03 07:35:25 51°29.868 2°55.25 12.7293 3.743669 31.660581 0.218274
2010-06-03 07:35:30 51°29.886 2°55.249 12.7251 3.749153 31.707616 0.218274
2010-06-03 07:35:35 51°29.905 2°55.248 12.713 3.750524 31.720516 0.218274
2010-06-03 07:35:40 51°29.924 2°55.247 12.7154 3.74852 31.699705 0.253098
2010-06-03 07:35:45 51°29.942 2°55.246 12.7098 3.752105 31.731485 0.218274
2010-06-03 07:35:50 51°29.961 2°55.245 12.7074 3.752105 31.731485 0.218274
2010-06-03 07:35:55 51°29.98 2°55.245 12.6989 3.751156 31.73104 0.253098
2010-06-03 07:36:00 51°29.999 2°55.243 12.7033 3.752317 31.744571 0.287922
2010-06-03 07:36:05 51°30.018 2°55.243 12.6999 3.750735 31.738173 0.322746
2010-06-03 07:36:10 51°30.036 2°55.241 12.6958 3.752106 31.755656 0.35757
2010-06-03 07:36:15 51°30.055 2°55.241 12.6927 3.752844 31.772421 0.322746
2010-06-03 07:36:20 51°30.074 2°55.24 12.6955 3.752844 31.772421 0.322746
2010-06-03 07:36:25 51°30.093 2°55.24 12.6862 3.752317 31.767454 0.35757
2010-06-03 07:36:30 51°30.112 2°55.239 12.6867 3.752001 31.769054 0.392394